﻿ProjectID	SampleID	SampleType	TaxonomyID	UniqCodeType	UniqCode	SampleName	ScientificName	CommonName	CollectionYear	CollectionMonth	CollectionDay	SamplingTimeStartEnd	SamplingTimeAMPM	SamplingDuration	WeatherStartEnd	CollectionRegion	CollectionCountry	CollectionArea	CollectionLatitudeFrom	CollectionLatitudeTo	CollectionLongitudeFrom	CollectionLongitudeTo	Sex	TissueOrgan	TissueLipid	TissueMoist	Weight	WeightUnit	Length	LengthUnit	LengthType	GrowthStage	Age	Disease	TemperatureStartEnd	WaterTemperatureStartEnd	pH	DO	EC	EC_temp	Salinity	SS	WaterDepthM	TransparencyM	WaterColor	SedimentTemperatureStartEnd	SedimentDepthM	SedimentAppearance	SedimentColor	SedimentSurfaceColor	SedimentOdor	SedimentImpurities	SedimentMoistureOnSiteAnalysis	IgnitionLossOnSiteAnalysis	SoilDepthM	FlowRate	MeanPM10	MeanTotalSuspendedParticles	HumidityStartEnd	WindDirectionStartEnd	WindSpeedMSStartEnd	AmountOfCollectedAirStartEnd	Remarks	RegisterDate	UpdateDate
PRA000008	SAA000324	ST003	34880	es-BANK	ET00656	E-2	"Nyctereutes procyonoides"	"Raccoon dog"	2000	12	26					Asia	Japan	Ehime	33.88141111	34.01356111	133.39135	133.6865194	Male	Liver	3.39																																							2016/10/5	2016/10/11
PRA000008	SAA000325	ST003	34880	es-BANK	"ET00659 "	E-5	"Nyctereutes procyonoides"	"Raccoon dog"	2001	2	21					Asia	Japan	Ehime	33.83600556	33.86477222	133.3492389	133.4008778	Male	Liver	3.45																																							2016/10/5	2016/10/11
PRA000008	SAA000326	ST003	34880	es-BANK	ET00661	E-7	"Nyctereutes procyonoides"	"Raccoon dog"	2001	3	10					Asia	Japan	Ehime	33.75333333	33.98555833	132.9744417	133.2908333	Female	Liver	4.26																																							2016/10/5	2016/10/11
PRA000008	SAA000327	ST003	34880	es-BANK	ET00666	E-12	"Nyctereutes procyonoides"	"Raccoon dog"	2001	3	16					Asia	Japan	Ehime	33.75333333	33.98555833	132.9744417	133.2908333	Male	Liver	4.98																																							2016/10/5	2016/10/11
PRA000008	SAA000328	ST003	34880	es-BANK	"ET00667 "	E-13	"Nyctereutes procyonoides"	"Raccoon dog"	2001	3	16					Asia	Japan	Ehime	33.75333333	33.98555833	132.9744417	133.2908333	Female	Liver	4.22																																							2016/10/5	2016/10/11
PRA000008	SAA000329	ST003	34880	es-BANK	"ET00668 "	E-14	"Nyctereutes procyonoides"	"Raccoon dog"	2001	3	16					Asia	Japan	Ehime	33.83600556	33.86477222	133.3492389	133.4008778	Female	Liver	3.64																																							2016/10/5	2016/10/11
PRA000008	SAA000330	ST003	34880	es-BANK	"ET00669 "	E-15	"Nyctereutes procyonoides"	"Raccoon dog"	2000	12	2					Asia	Japan	Ehime	33.82055556	33.85694444	132.8847222	132.9741667	Female	Liver	3.39		2.7	kg																																				2016/10/5	2016/10/11
PRA000008	SAA000331	ST003	34880	es-BANK	"ET00670 "	E-16	"Nyctereutes procyonoides"	"Raccoon dog"	2001	2	25					Asia	Japan	Ehime	33.68444167	33.75722222	132.9105556	133.2069444	Male	Liver	3.58		2.1	kg																																				2016/10/5	2016/10/11
PRA000008	SAA000332	ST003	34880	es-BANK	"ET00671 "	E-17	"Nyctereutes procyonoides"	"Raccoon dog"	2001	2	26					Asia	Japan	Ehime	33.83600556	33.86477222	133.3492389	133.4008778	Male	Liver	3.56																																							2016/10/5	2016/10/11
PRA000008	SAA000333	ST003	34880	es-BANK	ET00673	E-19	"Nyctereutes procyonoides"	"Raccoon dog"	2001	2	27					Asia	Japan	Ehime	33.75333333	33.98555833	132.9744417	133.2908333	Female	Liver	4.65																																							2016/10/5	2016/10/11
PRA000008	SAA000334	ST003	34880	es-BANK	"ET00674 "	E-20	"Nyctereutes procyonoides"	"Raccoon dog"	2001	3	17					Asia	Japan	Ehime	33.75333333	33.98555833	132.9744417	133.2908333	Male	Liver	2.56																																							2016/10/5	2016/10/11
PRA000008	SAA000335	ST003	34880	es-BANK	ET00675	E-21	"Nyctereutes procyonoides"	"Raccoon dog"	2001	3	18					Asia	Japan	Ehime	33.75333333	33.98555833	132.9744417	133.2908333	Male	Liver	3.65																																							2016/10/5	2016/10/11
PRA000008	SAA000336	ST003	34880	es-BANK	ET00678	E-24	"Nyctereutes procyonoides"	"Raccoon dog"	2001	1	18					Asia	Japan	Ehime	33.33055556	33.42916667	132.4830556	132.6438889	Female	Liver	4.08																																							2016/10/5	2016/10/11
PRA000008	SAA000337	ST003	34880	es-BANK	ET00679	E-25	"Nyctereutes procyonoides"	"Raccoon dog"	2002	2	7					Asia	Japan	Ehime	33.68444167	33.75722222	132.9105556	133.2069444	Female	Liver	3.66																																							2016/10/5	2016/10/11
PRA000008	SAA000338	ST003	34880	es-BANK	ET00680	E-26	"Nyctereutes procyonoides"	"Raccoon dog"	2002	2						Asia	Japan	Ehime	33.68444167	33.75722222	132.9105556	133.2069444	Male	Liver	5																																							2016/10/5	2016/10/11
PRA000008	SAA000339	ST003	34880	es-BANK	ET00681	E-27	"Nyctereutes procyonoides"	"Raccoon dog"	2002	3	12					Asia	Japan	Ehime	33.59805556	33.70472222	132.8675	133.0338889	Male	Liver	5.06																																							2016/10/5	2016/10/11
PRA000008	SAA000340	ST003	34880	es-BANK	ET00682	E-28	"Nyctereutes procyonoides"	"Raccoon dog"	2002	3	14					Asia	Japan	Ehime	33.83600556	33.86477222	133.3492389	133.4008778	Male	Liver	3.55																																							2016/10/5	2016/10/11
PRA000008	SAA000341	ST003	34880	es-BANK	ET00683	E-29	"Nyctereutes procyonoides"	"Raccoon dog"	2002	4	25					Asia	Japan	Ehime	33.84333333	33.94944444	133.2388889	133.3538889	Male	Liver	4.18																																							2016/10/5	2016/10/11
PRA000008	SAA000342	ST003	34880	es-BANK	ET00685	E-31	"Nyctereutes procyonoides"	"Raccoon dog"	2001	12	23					Asia	Japan	Ehime	33.05083333	33.33611111	132.2252778	132.6852778	Female	Liver	4.06		3.65	kg																																				2016/10/5	2016/10/11
PRA000008	SAA000343	ST003	34880	es-BANK	"ET00686 "	E-32	"Nyctereutes procyonoides"	"Raccoon dog"	2003	11	7					Asia	Japan	Ehime	33.75333333	33.98555833	132.9744417	133.2908333	Male	Liver	4.19																																							2016/10/5	2016/10/11
PRA000008	SAA000344	ST003	34880	es-BANK	"ET00687 "	E-33	"Nyctereutes procyonoides"	"Raccoon dog"	2003	11	7					Asia	Japan	Ehime	33.75333333	33.98555833	132.9744417	133.2908333	Female	Liver	4.02																																							2016/10/5	2016/10/11
PRA000008	SAA000345	ST003	34880	es-BANK	ET00489	O-1	"Nyctereutes procyonoides"	"Raccoon dog"	2004	10	8					Asia	Japan	Osaka	34.305	34.97166667	135.135	135.7883333	Male	Liver	5.75		3	kg																																				2016/10/5	2016/10/11
PRA000008	SAA000346	ST003	34880	es-BANK	"ET00501 "	O-2	"Nyctereutes procyonoides"	"Raccoon dog"	2004	10	13					Asia	Japan	Osaka	34.305	34.97166667	135.135	135.7883333	Male	Liver	3.11		3.5	kg																																				2016/10/5	2016/10/11
PRA000008	SAA000347	ST003	34880	es-BANK	"ET00502 "	O-3	"Nyctereutes procyonoides"	"Raccoon dog"	2004	10	13					Asia	Japan	Osaka	34.305	34.97166667	135.135	135.7883333	Female	Liver	2.8		2.8	kg																																				2016/10/5	2016/10/11
PRA000008	SAA000348	ST003	34880	es-BANK	ET00503	O-4	"Nyctereutes procyonoides"	"Raccoon dog"	2004							Asia	Japan	Osaka	34.305	34.97166667	135.135	135.7883333	Male	Liver	3.17		3.6	kg																																				2016/10/5	2016/10/11
PRA000008	SAA000349	ST003	34880	es-BANK	ET00504	O-5	"Nyctereutes procyonoides"	"Raccoon dog"	2004							Asia	Japan	Osaka	34.305	34.97166667	135.135	135.7883333	Male	Liver	3.93		4.5	kg				Matured																																2016/10/5	2016/10/11
PRA000008	SAA000350	ST003	34880	es-BANK	"ET00723 "	O-6	"Nyctereutes procyonoides"	"Raccoon dog"	2005							Asia	Japan	Osaka	34.305	34.97166667	135.135	135.7883333	Female	Liver	5.51		4.98	kg				Matured																																2016/10/5	2016/10/11
PRA000008	SAA000351	ST003	34880	es-BANK	ET00728	O-9	"Nyctereutes procyonoides"	"Raccoon dog"	2005							Asia	Japan	Osaka	34.305	34.97166667	135.135	135.7883333	Male	Liver	3.11		2.5	kg				Matured																																2016/10/5	2016/10/11
PRA000008	SAA000352	ST003	34880	es-BANK	ET00703	O-11	"Nyctereutes procyonoides"	"Raccoon dog"	2005							Asia	Japan	Osaka	34.305	34.97166667	135.135	135.7883333	Female	Liver	3.25		4.34	kg				Matured																																2016/10/5	2016/10/11
PRA000008	SAA000353	ST003	34880	es-BANK	ET00442		"Nyctereutes procyonoides"	"Raccoon dog"	2001	1	18					Asia	Japan	Kanagawa	35.31583333	35.53805833	139.1144417	139.6652778	Male	Liver	3.44																																							2016/10/5	2016/10/11
PRA000008	SAA000354	ST003	34880	es-BANK	ET00443		"Nyctereutes procyonoides"	"Raccoon dog"	2001	1	24					Asia	Japan	Kanagawa	35.31583333	35.53805833	139.1144417	139.6652778	Male	Liver	4.01																																							2016/10/5	2016/10/11
PRA000008	SAA000355	ST003	34880	es-BANK	ET00765		"Nyctereutes procyonoides"	"Raccoon dog"	2001	2	6					Asia	Japan	Kanagawa	35.31583333	35.53805833	139.1144417	139.6652778	Female	Liver	3.68																																							2016/10/5	2016/10/11
PRA000008	SAA000356	ST003	34880	es-BANK	ET00444		"Nyctereutes procyonoides"	"Raccoon dog"	2001	2	7					Asia	Japan	Kanagawa	35.31583333	35.53805833	139.1144417	139.6652778	Female	Liver	5.45																																							2016/10/5	2016/10/11
PRA000008	SAA000357	ST003	34880	es-BANK	ET00446		"Nyctereutes procyonoides"	"Raccoon dog"	2001	3	21					Asia	Japan	Kanagawa	35.31583333	35.53805833	139.1144417	139.6652778	Male	Liver	3.32																																							2016/10/5	2016/10/11
PRA000008	SAA000358	ST003	34880	es-BANK	ET00448		"Nyctereutes procyonoides"	"Raccoon dog"	2001	4	10					Asia	Japan	Kanagawa	35.31583333	35.53805833	139.1144417	139.6652778	Male	Liver	3.19																																							2016/10/5	2016/10/11
PRA000008	SAA000359	ST003	34880	es-BANK	ET00451		"Nyctereutes procyonoides"	"Raccoon dog"	2001	8	22					Asia	Japan	Kanagawa	35.31583333	35.53805833	139.1144417	139.6652778	Female	Liver	3.66																																							2016/10/5	2016/10/11
PRA000008	SAA000360	ST003	34880	es-BANK	ET00454		"Nyctereutes procyonoides"	"Raccoon dog"	2001	9	19					Asia	Japan	Kanagawa	35.31583333	35.53805833	139.1144417	139.6652778	Male	Liver	4.36																																							2016/10/5	2016/10/11
PRA000008	SAA000361	ST003	34880	es-BANK	ET00455		"Nyctereutes procyonoides"	"Raccoon dog"	2001	10	29					Asia	Japan	Kanagawa	35.31583333	35.53805833	139.1144417	139.6652778	Female	Liver	3.23																																							2016/10/5	2016/10/11
PRA000008	SAA000362	ST003	34880	es-BANK	ET00458		"Nyctereutes procyonoides"	"Raccoon dog"	2001	11	15					Asia	Japan	Kanagawa	35.31583333	35.53805833	139.1144417	139.6652778	Female	Liver	3.49																																							2016/10/5	2016/10/11
PRA000008	SAA000363	ST003	34880	es-BANK	ET00489	O-1	"Nyctereutes procyonoides"	"Raccoon dog"	2004	10	8					Asia	Japan	Osaka	34.305	34.97166667	135.135	135.7883333	Male	Adipose	57.68		3	kg																																				2016/10/5	2016/10/11
PRA000008	SAA000364	ST003	34880	es-BANK	"ET00501 "	O-2	"Nyctereutes procyonoides"	"Raccoon dog"	2004	10	13					Asia	Japan	Osaka	34.305	34.97166667	135.135	135.7883333	Male	Adipose	67.68		3.5	kg																																				2016/10/5	2016/10/11
PRA000008	SAA000365	ST003	34880	es-BANK	"ET00502 "	O-3	"Nyctereutes procyonoides"	"Raccoon dog"	2004	10	13					Asia	Japan	Osaka	34.305	34.97166667	135.135	135.7883333	Female	Adipose	75.87		2.8	kg																																				2016/10/5	2016/10/11
PRA000008	SAA000366	ST003	34880	es-BANK	ET00503	O-4	"Nyctereutes procyonoides"	"Raccoon dog"	2004							Asia	Japan	Osaka	34.305	34.97166667	135.135	135.7883333	Male	Adipose	75.1		3.6	kg																																				2016/10/5	2016/10/11
PRA000008	SAA000367	ST003	34880	es-BANK	ET00504	O-5	"Nyctereutes procyonoides"	"Raccoon dog"	2004							Asia	Japan	Osaka	34.305	34.97166667	135.135	135.7883333	Male	Adipose	79.41		4.5	kg				Matured																																2016/10/5	2016/10/11
PRA000008	SAA000368	ST003	34880	es-BANK	"ET00723 "	O-6	"Nyctereutes procyonoides"	"Raccoon dog"	2005							Asia	Japan	Osaka	34.305	34.97166667	135.135	135.7883333	Female	Adipose	88.03		4.98	kg				Matured																																2016/10/5	2016/10/11
PRA000008	SAA000369	ST003	34880	es-BANK	ET00728	O-9	"Nyctereutes procyonoides"	"Raccoon dog"	2005							Asia	Japan	Osaka	34.305	34.97166667	135.135	135.7883333	Male	Adipose	75.79		2.5	kg				Matured																																2016/10/5	2016/10/11
PRA000008	SAA000370	ST003	34880	es-BANK	ET00703	O-11	"Nyctereutes procyonoides"	"Raccoon dog"	2005							Asia	Japan	Osaka	34.305	34.97166667	135.135	135.7883333	Female	Adipose	82.14		4.34	kg				Matured																																2016/10/5	2016/10/11
PRA000009	SAA000371	ST005	54021	es-BANK	EB02698	BfA-794	"Phoebastria nigripes"	"Black-footed albatross (BfA) "	1998	2	22					"Pacific Ocean"			24.81666667	24.81666667	171.0666667	171.0666667	Male	"Pectoral muscle"	4.4		3100	g	61.1	cm	"Total length"	Subadult																																2016/10/11	2016/10/17
PRA000009	SAA000372	ST005	54021	es-BANK	EB02704	BfA-958	"Phoebastria nigripes"	"Black-footed albatross (BfA) "	1998	2	25					"Pacific Ocean"			24.5	24.5	169.6166667	169.6166667	Female	"Pectoral muscle"	5.4		3650	g	78.6	cm	"Total length"	Adult																																2016/10/11	2016/10/17
PRA000009	SAA000373	ST005	54021	es-BANK	EB02708	BfA-66	"Phoebastria nigripes"	"Black-footed albatross (BfA) "	1999	2	16					Asia	Japan	"Off coast of Ogasawara Islands, Tokyo"	27.03098889	27.11305556	142.1775	142.2380333	Male	"Pectoral muscle"	2.9		4000	g	83.7	cm	"Total length"	Adult																																2016/10/11	2016/10/17
PRA000009	SAA000374	ST005	54021	es-BANK	EB02712	BfA-69	"Phoebastria nigripes"	"Black-footed albatross (BfA) "	1999	3	7					Asia	Japan	"Off coast of Ogasawara Islands, Tokyo"	27.03098889	27.11305556	142.1775	142.2380333	Male	"Pectoral muscle"	3.8		4100	g	82.1	cm	"Total length"	Adult																																2016/10/11	2016/10/17
PRA000009	SAA000375	ST005	54021	es-BANK	EB02710	BfA-72	"Phoebastria nigripes"	"Black-footed albatross (BfA) "	1999	3						Asia	Japan	"Off coast of Ogasawara Islands, Tokyo"	27.01916667	27.18666667	142.1627778	142.2583333	Male	"Pectoral muscle"	4		4200	g	83.5	cm	"Total length"	Adult																																2016/10/11	2016/10/17
PRA000009	SAA000376	ST005	54020	es-BANK	EB03051	Lay-A3	"Phoebastria immutabilis"	"Laysan Albatross"	1998	3	16					"Pacific Ocean"			33.48333333	33.48333333	142.1	142.1	Female	"Pectoral muscle"	1.7		2000	g	77.6	cm	"Total length"	Adult																																2016/10/11	2016/10/17
PRA000009	SAA000377	ST005	54020	es-BANK	EB03043	Lay-419	"Phoebastria immutabilis"	"Laysan Albatross"	1998	2	12					"Pacific Ocean"			24.06666667	24.06666667	177.9833333	177.9833333	Male	"Pectoral muscle"	5.8		2900	g	80.3	cm	"Total length"	Adult																																2016/10/11	2016/10/17
PRA000009	SAA000378	ST005	54020	es-BANK	"EB03044 "	Lay-424	"Phoebastria immutabilis"	"Laysan Albatross"	1998	2	12					"Pacific Ocean"			24.06666667	24.06666667	177.9833333	177.9833333	Female	"Pectoral muscle"	3.9		2500	g	75.8	cm	"Total length"	Adult																																2016/10/11	2016/10/17
PRA000009	SAA000379	ST005	54020	es-BANK	EB03048	Lay-463	"Phoebastria immutabilis"	"Laysan Albatross"	1998	2	14					"Pacific Ocean"			24.06666667	24.58333333	171.5166667	171.5166667	Female	"Pectoral muscle"	0.97		2600	g	75.8	cm	"Total length"	Adult																																2016/10/11	2016/10/17
PRA000009	SAA000380	ST005	54020	es-BANK	"EB03050 "	Lay-950	"Phoebastria immutabilis"	"Laysan Albatross"	1998	2	25					"Pacific Ocean"			24.5	24.5	169.6166667	169.6166667	Male	"Pectoral muscle"	2.9		3300	g	82.2	cm	"Total length"	Adult																																2016/10/11	2016/10/17
PRA000009	SAA000381	ST005	30455	es-BANK	EB04992	741	"Fulmarus glacialis"	"Northern Fulmar"	1999	6	30					"Pacific Ocean"			51.5	51.5	180	180	Female	"Pectoral muscle"	3.3		590	g				Adult																																2016/10/11	2016/10/17
PRA000009	SAA000382	ST005	30455	es-BANK	EB04993	742	"Fulmarus glacialis"	"Northern Fulmar"	1999	6	30					"Pacific Ocean"			51.5	51.5	180	180	Female	"Pectoral muscle"	3.5		540	g				Adult																																2016/10/11	2016/10/17
PRA000009	SAA000383	ST005	30455			745	"Fulmarus glacialis"	"Northern Fulmar"	1999							"Pacific Ocean"			51.5	51.5	180	180	Male	"Pectoral muscle"	5.5		650	g				Adult																																2016/10/11	2016/10/17
PRA000009	SAA000384	ST005	30455	es-BANK	"EB05001 "	774	"Fulmarus glacialis"	"Northern Fulmar"	1999	7	14					"Pacific Ocean"			56.48333333	56.48333333	178.9833333	178.9833333	Male	"Pectoral muscle"	2.2		650	g				Adult																																2016/10/11	2016/10/17
PRA000009	SAA000385	ST005	30455	es-BANK	EB05002	775	"Fulmarus glacialis"	"Northern Fulmar"	1999	7	14					"Pacific Ocean"			56.48333333	56.48333333	178.9833333	178.9833333	Female	"Pectoral muscle"	1.9		600	g				Adult																																2016/10/11	2016/10/17
PRA000009	SAA000386	ST005	52647	es-BANK	EB01799	SSE-2	"Haliaeetus pelagicus"	"Stellers sea-Eagle"	1994	2	16					Asia	Japan	Hokkaido	43.93083333	43.94222222	144.3861111	144.4088889	Male	"Pectoral muscle"	0.81		4200	g				Adult																																2016/10/11	2016/10/17
PRA000009	SAA000387	ST005	179808	es-BANK	EB01059	99BTG-505	"Larus crassirostris"	"Black-tailed Gull"	1999	6	12					Asia	Japan	"Rishiri Island, Hokkaido"	45.10055556	45.25694444	141.135	141.3447222	Female	"Pectoral muscle"	5.3		550	g				Adult																																2016/10/11	2016/10/17
PRA000009	SAA000388	ST005	179808	es-BANK	EB01196	00BTG-557	"Larus crassirostris"	"Black-tailed Gull"	2000	6	5					Asia	Japan	"Rishiri Island, Hokkaido"	45.10055556	45.25694444	141.135	141.3447222	Female	"Pectoral muscle"	3.3		461	g	49.5	cm	"Total length"	Adult																																2016/10/11	2016/10/17
PRA000009	SAA000389	ST005	179808	es-BANK	EB01206	00BTG-558	"Larus crassirostris"	"Black-tailed Gull"	2000	6	6					Asia	Japan	"Rishiri Island, Hokkaido"	45.10055556	45.25694444	141.135	141.3447222	Female	"Pectoral muscle"	7.7		487	g	50	cm	"Total length"	Adult																																2016/10/11	2016/10/17
PRA000009	SAA000390	ST005	179808	es-BANK	EB01312	01BTG-518	"Larus crassirostris"	"Black-tailed Gull"	2001	6	9					Asia	Japan	"Rishiri Island, Hokkaido"	45.10055556	45.25694444	141.135	141.3447222	Female	"Pectoral muscle"	5.6		509	g				Adult																																2016/10/11	2016/10/17
PRA000009	SAA000391	ST005	179808	es-BANK	EB01351	01BTG-527	"Larus crassirostris"	"Black-tailed Gull"	2001	6	11					Asia	Japan	"Rishiri Island, Hokkaido"	45.10055556	45.25694444	141.135	141.3447222	Female	"Pectoral muscle"	5		485	g				Adult																																2016/10/11	2016/10/17
PRA000009	SAA000392	ST005	8957	es-BANK	EB01630	09-B110	"Accipiter gentilis"	Goshawk	1997	10	22					Asia	Japan	Tochigi	36.78722222	36.925	139.9286111	140.2588889	Male	"Pectoral muscle"	1.1		389	g	49.8	cm	"Total length"	Adult																																2016/10/11	2016/10/17
PRA000009	SAA000393	ST005	8962	es-BANK	EB00504	IPMA-165	"Aquila chrysaetos"	"Golden Eagle"	1994	10	3					Asia	Japan	Iwate	39.71075	40.04565278	141.47375	142.0098889	Female	"Pectoral muscle"	2.3		4100	g	85	cm	"Total length"	Adult																																2016/10/11	2016/10/17
PRA000009	SAA000394	ST005	8962	es-BANK	EB00508	IPMA-166	"Aquila chrysaetos"	"Golden Eagle"	1995	7	6					Asia	Japan	Iwate	38.85111111	38.97888889	141.4886111	141.5761111	Male	"Pectoral muscle"	0.96		2300	g	78	cm	"Total length"	Subadult																																2016/10/11	2016/10/17
PRA000009	SAA000395	ST005	36249	es-BANK	EB04543	981101O-JC1	"Corvus macrorhynchos"	"Jungle Crow"	1998	11	1					Asia	Japan	Osaka	34.305	34.97166667	135.135	135.7883333	Male	"Pectoral muscle"	0.91		465	g	58.1	cm	"Total length"	Adult																																2016/10/11	2016/10/17
PRA000009	SAA000396	ST005	36249	es-BANK	"EB04544 "	981101O-JC2	"Corvus macrorhynchos"	"Jungle Crow"	1998	11	1					Asia	Japan	Osaka	34.305	34.97166667	135.135	135.7883333	Male	"Pectoral muscle"	1.1		614	g	59.2	cm	"Total length"	Adult																																2016/10/11	2016/10/17
PRA000009	SAA000397	ST005	36249	es-BANK	"EB04545 "	981101O-JC4	"Corvus macrorhynchos"	"Jungle Crow"	1998	11	1					Asia	Japan	Osaka	34.305	34.97166667	135.135	135.7883333	Male	"Pectoral muscle"	1.8		610	g	60.1	cm	"Total length"	Adult																																2016/10/11	2016/10/17
PRA000009	SAA000398	ST005	36249	es-BANK	"EB04547 "	981101O-JC6	"Corvus macrorhynchos"	"Jungle Crow"	1998	11	1					Asia	Japan	Osaka	34.305	34.97166667	135.135	135.7883333	Male	"Pectoral muscle"	1.4		518	g	55.6	cm	"Total length"	Adult																																2016/10/11	2016/10/17
PRA000009	SAA000399	ST005	36249	es-BANK	"EB04549 "	981101O-JC8	"Corvus macrorhynchos"	"Jungle Crow"	1998	11	1					Asia	Japan	Osaka	34.305	34.97166667	135.135	135.7883333	Male	"Pectoral muscle"	0.92		528	g	56.6	cm	"Total length"	Adult																																2016/10/11	2016/10/17
PRA000009	SAA000400	ST005	9209			"01BLC04 (B-24)"	"Phalacrocorax carbo"	"Common Cormorant"	2001							Asia	Japan	"Lake Biwa, Shiga"	34.97222222	35.55222222	135.8594417	136.2613889	Male	"Pectoral muscle"	2.9		2370	g	78.2	cm	"Total length"	Adult																																2016/10/11	2016/10/17
PRA000009	SAA000401	ST005	9209			"01BLC06 (B-14)"	"Phalacrocorax carbo"	"Common Cormorant"	2001							Asia	Japan	"Lake Biwa, Shiga"	34.97222222	35.55222222	135.8594417	136.2613889	Male	"Pectoral muscle"	3.9		2140	g	76.5	cm	"Total length"	Adult																																2016/10/11	2016/10/17
PRA000009	SAA000402	ST005	9209			"01BLC08 (B-2)"	"Phalacrocorax carbo"	"Common Cormorant"	2001							Asia	Japan	"Lake Biwa, Shiga"	34.97222222	35.55222222	135.8594417	136.2613889	Male	"Pectoral muscle"	3.3		1940	g	80.2	cm	"Total length"	Adult																																2016/10/11	2016/10/17
PRA000009	SAA000403	ST005	9209			"01BLC12 (B-20)"	"Phalacrocorax carbo"	"Common Cormorant"	2001							Asia	Japan	"Lake Biwa, Shiga"	34.97222222	35.55222222	135.8594417	136.2613889	Female	"Pectoral muscle"	2		2160	g	75.3	cm	"Total length"	Adult																																2016/10/11	2016/10/17
PRA000016	SAA000533	ST026				Cam1	Soil		1999							Asia	Cambodia	"Phnom Penh"	11.43	11.72	104.8	104.9																																									"Reference site; Sample collected in 1999 or 2000"	2016/12/12	2016/12/12
PRA000016	SAA000534	ST026				RSS1	Soil		1999							Asia	Cambodia	"Phnom Penh"	11.43	11.72	104.8	104.9																																									"Reference site; Sample collected in 1999 or 2000"	2016/12/12	2016/12/12
PRA000016	SAA000535	ST026				RSS2	Soil		1999							Asia	Cambodia	"Phnom Penh"	11.43	11.72	104.8	104.9																																									"Reference site; Sample collected in 1999 or 2000"	2016/12/12	2016/12/12
PRA000016	SAA000536	ST026				RSS3	Soil		1999							Asia	Cambodia	"Phnom Penh"	11.43	11.72	104.8	104.9																																									"Reference site; Sample collected in 1999 or 2000"	2016/12/12	2016/12/12
PRA000016	SAA000537	ST026				RSS4	Soil		1999							Asia	Cambodia	"Phnom Penh"	11.43	11.72	104.8	104.9																																									"Reference site; Sample collected in 1999 or 2000"	2016/12/12	2016/12/12
PRA000016	SAA000538	ST026				St11	Soil		2004							Asia	India	Chennai	12.89	13.25	80.11	80.3																																									"Reference site"	2016/12/12	2016/12/12
PRA000016	SAA000539	ST026				St12	Soil		2004							Asia	India	Chennai	12.89	13.25	80.11	80.3																																									"Reference site"	2016/12/12	2016/12/12
PRA000016	SAA000540	ST026				St16	Soil		2004							Asia	India	Chennai	12.89	13.25	80.11	80.3																																									"Reference site"	2016/12/12	2016/12/12
PRA000016	SAA000541	ST026				St20	Soil		2004							Asia	India	Chennai	12.89	13.25	80.11	80.3																																									"Reference site"	2016/12/12	2016/12/12
PRA000016	SAA000542	ST026				CS5	Soil		2004							Asia	India	Chennai	12.89	13.25	80.11	80.3																																									"Reference site"	2016/12/12	2016/12/12
PRA000016	SAA000543	ST026				VT01	Soil		2004							Asia	Vietnam	"Can Tho"	10.02	10.07	105.72	105.77																																									"Reference site"	2016/12/12	2016/12/12
PRA000016	SAA000544	ST026				VT02	Soil		2004							Asia	Vietnam	"Can Tho"	10.02	10.07	105.72	105.77																																									"Reference site"	2016/12/12	2016/12/12
PRA000016	SAA000545	ST026				VT05	Soil		2004							Asia	Vietnam	"Can Tho"	10.02	10.07	105.72	105.77																																									"Reference site"	2016/12/12	2016/12/12
PRA000016	SAA000546	ST026				VT06	Soil		2004							Asia	Vietnam	"Can Tho"	10.02	10.07	105.72	105.77																																									"Reference site"	2016/12/12	2016/12/12
PRA000016	SAA000547	ST026				VT08	Soil		2004							Asia	Vietnam	"Can Tho"	10.02	10.07	105.72	105.77																																									"Reference site"	2016/12/12	2016/12/12
PRA000016	SAA000548	ST026				CSS-01	Soil		2004							Asia	Vietnam	"Can Tho"	10.02	10.07	105.72	105.77																																									"Reference site"	2016/12/12	2016/12/12
PRA000016	SAA000549	ST026				CSS-03	Soil		2004							Asia	Vietnam	"Can Tho"	10.02	10.07	105.72	105.77																																									"Reference site"	2016/12/12	2016/12/12
PRA000016	SAA000550	ST026				KHB-7	Soil		2003							Asia	Indonesia	Jakarta	-5.4	-5.833333333	106.1166667	107																																									"Reference site"	2016/12/12	2016/12/12
PRA000016	SAA000551	ST026				KHB-8	Soil		2003							Asia	Indonesia	Jakarta	-5.4	-5.833333333	106.1166667	107																																									"Reference site"	2016/12/12	2016/12/12
PRA000016	SAA000552	ST026				CBB5	Soil		2003							Asia	Indonesia	Jakarta	-5.4	-5.833333333	106.1166667	107																																									"Reference site"	2016/12/12	2016/12/12
PRA000016	SAA000553	ST026				CBB6	Soil		2003							Asia	Indonesia	Jakarta	-5.4	-5.833333333	106.1166667	107																																									"Reference site"	2016/12/12	2016/12/12
PRA000016	SAA000554	ST026				BSB9	Soil		2003							Asia	Indonesia	Jakarta	-5.4	-5.833333333	106.1166667	107																																									"Reference site"	2016/12/12	2016/12/12
PRA000016	SAA000555	ST026				TJB19	Soil		2003							Asia	Indonesia	Jakarta	-5.4	-5.833333333	106.1166667	107																																									"Reference site"	2016/12/12	2016/12/12
PRA000016	SAA000556	ST026				SDB21	Soil		2003							Asia	Indonesia	Jakarta	-5.4	-5.833333333	106.1166667	107																																									"Reference site"	2016/12/12	2016/12/12
PRA000016	SAA000557	ST026				BHL23	Soil		2003							Asia	Indonesia	Jakarta	-5.4	-5.833333333	106.1166667	107																																									"Reference site"	2016/12/12	2016/12/12
PRA000016	SAA000558	ST026				LG-8	Soil		2002							Asia	Malaysia	"Kuala Lumpur"	3.05	3.23	101.7	101.6																																									"Reference site"	2016/12/12	2016/12/12
PRA000016	SAA000559	ST026				LG-10	Soil		2002							Asia	Malaysia	"Kuala Lumpur"	3.05	3.23	101.7	101.6																																									"Reference site"	2016/12/12	2016/12/12
PRA000016	SAA000560	ST026				DRS-1	Soil		2000							Asia	Cambodia	"Phnom Penh"	11.43	11.72	104.8	104.9																																									"Dumping site"	2016/12/12	2016/12/12
PRA000016	SAA000561	ST026				DRS8	Soil		2000							Asia	Cambodia	"Phnom Penh"	11.43	11.72	104.8	104.9																																									"Dumping site"	2016/12/12	2016/12/12
PRA000016	SAA000562	ST026				DS1	Soil		1999							Asia	Cambodia	"Phnom Penh"	11.43	11.72	104.8	104.9																																									"Dumping site"	2016/12/12	2016/12/12
PRA000016	SAA000563	ST026				DS2	Soil		1999							Asia	Cambodia	"Phnom Penh"	11.43	11.72	104.8	104.9																																									"Dumping site"	2016/12/12	2016/12/12
PRA000016	SAA000564	ST026				DS3	Soil		1999							Asia	Cambodia	"Phnom Penh"	11.43	11.72	104.8	104.9																																									"Dumping site"	2016/12/12	2016/12/12
PRA000016	SAA000565	ST026				DSS2	Soil		1999							Asia	Cambodia	"Phnom Penh"	11.43	11.72	104.8	104.9																																									"Dumping site"	2016/12/12	2016/12/12
PRA000016	SAA000566	ST026				DS5	Soil		2004							Asia	India	Chennai	12.89	13.25	80.11	80.3																																									"Dumping site"	2016/12/12	2016/12/12
PRA000016	SAA000567	ST026				DS8	Soil		2004							Asia	India	Chennai	12.89	13.25	80.11	80.3																																									"Dumping site"	2016/12/12	2016/12/12
PRA000016	SAA000568	ST026				DS9	Soil		2004							Asia	India	Chennai	12.89	13.25	80.11	80.3																																									"Dumping site"	2016/12/12	2016/12/12
PRA000016	SAA000569	ST026				PDSI-1	Soil		2004							Asia	India	Chennai	12.89	13.25	80.11	80.3																																									"Dumping site"	2016/12/12	2016/12/12
PRA000016	SAA000570	ST026				PDSO-1	Soil		2004							Asia	India	Chennai	12.89	13.25	80.11	80.3																																									"Dumping site"	2016/12/12	2016/12/12
PRA000016	SAA000571	ST026				Moor-Rich2	Soil		2004							Asia	India	Chennai	12.89	13.25	80.11	80.3																																									"Dumping site"	2016/12/12	2016/12/12
PRA000016	SAA000572	ST026				"K-2 India"	Soil		2004							Asia	India	Chennai	12.89	13.25	80.11	80.3																																									"Dumping site"	2016/12/12	2016/12/12
PRA000016	SAA000573	ST026				PDS-2	Soil		2004							Asia	India	Chennai	12.89	13.25	80.11	80.3																																									"Dumping site"	2016/12/12	2016/12/12
PRA000016	SAA000574	ST026				PDS-6	Soil		2004							Asia	India	Chennai	12.89	13.25	80.11	80.3																																									"Dumping site"	2016/12/12	2016/12/12
PRA000016	SAA000575	ST026				PDS-8	Soil		2004							Asia	India	Chennai	12.89	13.25	80.11	80.3																																									"Dumping site"	2016/12/12	2016/12/12
PRA000016	SAA000576	ST026				DSS-02	Soil		2004							Asia	Vietnam	"Can Tho"	10.02	10.07	105.72	105.77																																									"Dumping site"	2016/12/12	2016/12/12
PRA000016	SAA000577	ST026				DSS-03	Soil		2004							Asia	Vietnam	"Can Tho"	10.02	10.07	105.72	105.77																																									"Dumping site"	2016/12/12	2016/12/12
PRA000016	SAA000578	ST026				DSS-04	Soil		2004							Asia	Vietnam	"Can Tho"	10.02	10.07	105.72	105.77																																									"Dumping site"	2016/12/12	2016/12/12
PRA000016	SAA000579	ST026				DSS-08	Soil		2004							Asia	Vietnam	"Can Tho"	10.02	10.07	105.72	105.77																																									"Dumping site"	2016/12/12	2016/12/12
PRA000016	SAA000580	ST026				DSS-09	Soil		2004							Asia	Vietnam	"Can Tho"	10.02	10.07	105.72	105.77																																									"Dumping site"	2016/12/12	2016/12/12
PRA000016	SAA000581	ST026				LDSS001	Soil		2003							Asia	Indonesia	Jakarta	-5.4	-5.833333333	106.1166667	107																																									"Dumping site; Sample collected in 2002 or 2003"	2016/12/12	2016/12/12
PRA000016	SAA000582	ST026				LDSS002	Soil		2003							Asia	Indonesia	Jakarta	-5.4	-5.833333333	106.1166667	107																																									"Dumping site; Sample collected in 2002 or 2003"	2016/12/12	2016/12/12
PRA000016	SAA000583	ST026				LDSS003	Soil		2003							Asia	Indonesia	Jakarta	-5.4	-5.833333333	106.1166667	107																																									"Dumping site; Sample collected in 2002 or 2003"	2016/12/12	2016/12/12
PRA000016	SAA000584	ST026				LDSS004	Soil		2003							Asia	Indonesia	Jakarta	-5.4	-5.833333333	106.1166667	107																																									"Dumping site; Sample collected in 2002 or 2003"	2016/12/12	2016/12/12
PRA000016	SAA000585	ST026				LDSS005	Soil		2003							Asia	Indonesia	Jakarta	-5.4	-5.833333333	106.1166667	107																																									"Dumping site; Sample collected in 2002 or 2003"	2016/12/12	2016/12/12
PRA000016	SAA000586	ST026				ISDS004	Soil		2003							Asia	Indonesia	Jakarta	-5.4	-5.833333333	106.1166667	107																																									"Dumping site; Sample collected in 2002 or 2003"	2016/12/12	2016/12/12
PRA000016	SAA000587	ST026				ISDS005	Soil		2003							Asia	Indonesia	Jakarta	-5.4	-5.833333333	106.1166667	107																																									"Dumping site; Sample collected in 2002 or 2003"	2016/12/12	2016/12/12
PRA000016	SAA000588	ST026				ISDS006	Soil		2003							Asia	Indonesia	Jakarta	-5.4	-5.833333333	106.1166667	107																																									"Dumping site; Sample collected in 2002 or 2003"	2016/12/12	2016/12/12
PRA000016	SAA000589	ST026				ISDS007	Soil		2003							Asia	Indonesia	Jakarta	-5.4	-5.833333333	106.1166667	107																																									"Dumping site; Sample collected in 2002 or 2003"	2016/12/12	2016/12/12
PRA000016	SAA000590	ST026				ISDS009	Soil		2003							Asia	Indonesia	Jakarta	-5.4	-5.833333333	106.1166667	107																																									"Dumping site; Sample collected in 2002 or 2003"	2016/12/12	2016/12/12
PRA000016	SAA000591	ST026				ISDS012	Soil		2003							Asia	Indonesia	Jakarta	-5.4	-5.833333333	106.1166667	107																																									"Dumping site; Sample collected in 2002 or 2003"	2016/12/12	2016/12/12
PRA000016	SAA000592	ST026				ISDS014	Soil		2003							Asia	Indonesia	Jakarta	-5.4	-5.833333333	106.1166667	107																																									"Dumping site; Sample collected in 2002 or 2003"	2016/12/12	2016/12/12
PRA000016	SAA000593	ST026				ISDS018	Soil		2003							Asia	Indonesia	Jakarta	-5.4	-5.833333333	106.1166667	107																																									"Dumping site; Sample collected in 2002 or 2003"	2016/12/12	2016/12/12
PRA000016	SAA000594	ST026				ISDS019	Soil		2003							Asia	Indonesia	Jakarta	-5.4	-5.833333333	106.1166667	107																																									"Dumping site; Sample collected in 2002 or 2003"	2016/12/12	2016/12/12
PRA000016	SAA000595	ST026				ISDS025	Soil		2003							Asia	Indonesia	Jakarta	-5.4	-5.833333333	106.1166667	107																																									"Dumping site; Sample collected in 2002 or 2003"	2016/12/12	2016/12/12
PRA000016	SAA000596	ST026				ISDS028	Soil		2003							Asia	Indonesia	Jakarta	-5.4	-5.833333333	106.1166667	107																																									"Dumping site; Sample collected in 2002 or 2003"	2016/12/12	2016/12/12
PRA000016	SAA000597	ST026				ISDS029	Soil		2003							Asia	Indonesia	Jakarta	-5.4	-5.833333333	106.1166667	107																																									"Dumping site; Sample collected in 2002 or 2003"	2016/12/12	2016/12/12
PRA000016	SAA000598	ST026				INDS1-1	Soil		2007							Asia	Indonesia	Jakarta	-5.4	-5.833333333	106.1166667	107																																									"Dumping site"	2016/12/12	2016/12/12
PRA000016	SAA000599	ST026				INDS1-2	Soil		2007							Asia	Indonesia	Jakarta	-5.4	-5.833333333	106.1166667	107																																									"Dumping site"	2016/12/12	2016/12/12
PRA000016	SAA000600	ST026				INDS1-3	Soil		2007							Asia	Indonesia	Jakarta	-5.4	-5.833333333	106.1166667	107																																									"Dumping site"	2016/12/12	2016/12/12
PRA000016	SAA000601	ST026				INDS2-1	Soil		2007							Asia	Indonesia	Jakarta	-5.4	-5.833333333	106.1166667	107																																									"Dumping site"	2016/12/12	2016/12/12
PRA000016	SAA000602	ST026				INDS2-2	Soil		2007							Asia	Indonesia	Jakarta	-5.4	-5.833333333	106.1166667	107																																									"Dumping site"	2016/12/12	2016/12/12
PRA000016	SAA000603	ST026				INDS2-3	Soil		2007							Asia	Indonesia	Jakarta	-5.4	-5.833333333	106.1166667	107																																									"Dumping site"	2016/12/12	2016/12/12
PRA000016	SAA000604	ST026				INDS2-4	Soil		2007							Asia	Indonesia	Jakarta	-5.4	-5.833333333	106.1166667	107																																									"Dumping site"	2016/12/12	2016/12/12
PRA000016	SAA000605	ST026				INDS2-5	Soil		2007							Asia	Indonesia	Jakarta	-5.4	-5.833333333	106.1166667	107																																									"Dumping site"	2016/12/12	2016/12/12
PRA000016	SAA000606	ST026				INDS3-1	Soil		2007							Asia	Indonesia	Jakarta	-5.4	-5.833333333	106.1166667	107																																									"Dumping site"	2016/12/12	2016/12/12
PRA000016	SAA000607	ST026				INDS3-2	Soil		2007							Asia	Indonesia	Jakarta	-5.4	-5.833333333	106.1166667	107																																									"Dumping site"	2016/12/12	2016/12/12
PRA000016	SAA000608	ST026				INDS3-3	Soil		2007							Asia	Indonesia	Jakarta	-5.4	-5.833333333	106.1166667	107																																									"Dumping site"	2016/12/12	2016/12/12
PRA000016	SAA000609	ST026				INDS4-1	Soil		2007							Asia	Indonesia	Jakarta	-5.4	-5.833333333	106.1166667	107																																									"Dumping site"	2016/12/12	2016/12/12
PRA000016	SAA000610	ST026				INDS4-2	Soil		2007							Asia	Indonesia	Jakarta	-5.4	-5.833333333	106.1166667	107																																									"Dumping site"	2016/12/12	2016/12/12
PRA000016	SAA000611	ST026				INDS4-3	Soil		2007							Asia	Indonesia	Jakarta	-5.4	-5.833333333	106.1166667	107																																									"Dumping site"	2016/12/12	2016/12/12
PRA000016	SAA000612	ST026				INDS5-1	Soil		2007							Asia	Indonesia	Jakarta	-5.4	-5.833333333	106.1166667	107																																									"Dumping site"	2016/12/12	2016/12/12
PRA000016	SAA000613	ST026				INDS5-2	Soil		2007							Asia	Indonesia	Jakarta	-5.4	-5.833333333	106.1166667	107																																									"Dumping site"	2016/12/12	2016/12/12
PRA000016	SAA000614	ST026				INDS5-3	Soil		2007							Asia	Indonesia	Jakarta	-5.4	-5.833333333	106.1166667	107																																									"Dumping site"	2016/12/12	2016/12/12
PRA000016	SAA000615	ST026				TPA2	Soil		2003							Asia	Indonesia	Jakarta	-5.4	-5.833333333	106.1166667	107																																									"Dumping site"	2016/12/12	2016/12/12
PRA000016	SAA000616	ST026				TPA3	Soil		2003							Asia	Indonesia	Jakarta	-5.4	-5.833333333	106.1166667	107																																									"Dumping site"	2016/12/12	2016/12/12
PRA000016	SAA000617	ST026				R-3	Soil		2002							Asia	Malaysia	"Kuala Lumpur"	3.05	3.23	101.6	101.7																																									"Dumping site"	2016/12/12	2016/12/12
PRA000016	SAA000618	ST026				P11	Soil		2002							Asia	Malaysia	"Kuala Lumpur"	3.05	3.23	101.6	101.7																																									"Dumping site"	2016/12/12	2016/12/12
PRA000017	SAA000619	ST003	9606			E-08	"Homo sapiens"	Human	2004							Asia	Japan	Ehime	32.88472222	34.30166667	132.0125	133.6930556	Male	Adipose	73								"25 y.o."	Rhabdomyosarcoma																													"Measenteric fat; Same sample as SAA000652"	2016/11/29	2016/12/5
PRA000017	SAA000620	ST003	9606			E-01	"Homo sapiens"	Human	2003							Asia	Japan	Ehime	32.88472222	34.30166667	132.0125	133.6930556	Male	Adipose	72								"34 y.o."	"Hepatic insufficiency, hepatitis B "																													"Measenteric fat"	2016/11/29	2016/12/5
PRA000017	SAA000621	ST003	9606			E-20	"Homo sapiens"	Human	2004							Asia	Japan	Ehime	32.88472222	34.30166667	132.0125	133.6930556	Male	Adipose	82								"40 y.o."	"Hepatic insufficiency, renal failure "																													"Measenteric fat"	2016/11/29	2016/12/5
PRA000017	SAA000622	ST003	9606			E-16	"Homo sapiens"	Human	2004							Asia	Japan	Ehime	32.88472222	34.30166667	132.0125	133.6930556	Male	Adipose	41								"41 y.o."	"Liposarcoma, liver metastasis, lung metastasis "																													"Measenteric fat; Same sample as SAA000659"	2016/11/29	2016/12/5
PRA000017	SAA000623	ST003	9606			E-02	"Homo sapiens"	Human	2003							Asia	Japan	Ehime	32.88472222	34.30166667	132.0125	133.6930556	Male	Adipose	11								"49 y.o."	"Malignant melanoma "																													"Measenteric fat"	2016/11/29	2016/12/5
PRA000017	SAA000624	ST003	9606			E-09	"Homo sapiens"	Human	2004							Asia	Japan	Ehime	32.88472222	34.30166667	132.0125	133.6930556	Male	Adipose	50								"57 y.o."	Cholangiocarcinoma																													"Measenteric fat; Same sample as SAA000653"	2016/11/29	2016/12/5
PRA000017	SAA000625	ST003	9606			215	"Homo sapiens"	Human	2003							Asia	Japan	Kanto	34.917714	36.28333333	138.7113889	140.857758	Male	Adipose	42								"58 y.o."	"Acute myelocytic leukemia "																													"Measenteric fat; Same sample as SAA000675"	2016/11/29	2016/12/5
PRA000017	SAA000626	ST003	9606			221	"Homo sapiens"	Human	2003							Asia	Japan	Kanto	34.917714	36.28333333	138.7113889	140.857758	Male	Adipose	52								"60 y.o."	"Hepatocellular carcinoma "																													"Measenteric fat; Same sample as SAA000681"	2016/11/29	2016/12/5
PRA000017	SAA000627	ST003	9606			222	"Homo sapiens"	Human	2003							Asia	Japan	Kanto	34.917714	36.28333333	138.7113889	140.857758	Male	Adipose	61								"66 y.o."	"Renal insufficiency "																													"Measenteric fat"	2016/11/29	2016/12/5
PRA000017	SAA000628	ST003	9606			E-04	"Homo sapiens"	Human	2004							Asia	Japan	Ehime	32.88472222	34.30166667	132.0125	133.6930556	Male	Adipose	62								"69 y.o."	"Cervical lymphnode metastatic cancer of unknown origin"																													"Measenteric fat; Same sample as SAA000648"	2016/11/29	2016/12/5
PRA000017	SAA000629	ST003	9606			E-12	"Homo sapiens"	Human	2004							Asia	Japan	Ehime	32.88472222	34.30166667	132.0125	133.6930556	Male	Adipose	75								"70 y.o."	"Perforation of gastro-intestinal tract, pneumocystis carini pneumonia "																													"Measenteric fat; Same sample as SAA000656"	2016/11/29	2016/12/5
PRA000017	SAA000630	ST003	9606			E-13	"Homo sapiens"	Human	2004							Asia	Japan	Ehime	32.88472222	34.30166667	132.0125	133.6930556	Male	Adipose	77								"73 y.o."	"Gastric cancer, malgnant lymphoma "																													"Measenteric fat; Same sample as SAA000657"	2016/11/29	2016/12/5
PRA000017	SAA000631	ST003	9606			E-10	"Homo sapiens"	Human	2004							Asia	Japan	Ehime	32.88472222	34.30166667	132.0125	133.6930556	Male	Adipose	76								"76 y.o."	"Pneumonia, idiopathic interstitial pneumonia "																													"Measenteric fat; Same sample as SAA000654"	2016/11/29	2016/12/5
PRA000017	SAA000632	ST003	9606			E-11	"Homo sapiens"	Human	2004							Asia	Japan	Ehime	32.88472222	34.30166667	132.0125	133.6930556	Male	Adipose	60								"79 y.o."	"Lung cancer "																													"Measenteric fat; Same sample as SAA000655"	2016/11/29	2016/12/5
PRA000017	SAA000633	ST003	9606			219	"Homo sapiens"	Human	2003							Asia	Japan	Kanto	34.917714	36.28333333	138.7113889	140.857758	Male	Adipose	69								"79 y.o."	"Malignant lymphoma "																													"Measenteric fat; Same sample as SAA000679"	2016/11/29	2016/12/5
PRA000017	SAA000634	ST003	9606			E-14	"Homo sapiens"	Human	2004							Asia	Japan	Ehime	32.88472222	34.30166667	132.0125	133.6930556	Male	Adipose	55								"81 y.o."	"Pancreatic cancer "																													"Measenteric fat"	2016/11/29	2016/12/5
PRA000017	SAA000635	ST003	9606			E-15	"Homo sapiens"	Human	2004							Asia	Japan	Ehime	32.88472222	34.30166667	132.0125	133.6930556	Male	Adipose	72								"81 y.o."	"Metastatic liver cancer "																													"Measenteric fat; Same sample as SAA000658"	2016/11/29	2016/12/5
PRA000017	SAA000636	ST003	9606			217	"Homo sapiens"	Human	2003							Asia	Japan	Kanto	34.917714	36.28333333	138.7113889	140.857758	Male	Adipose	72								"81 y.o."	"Cardiac infarction "																													"Measenteric fat; Same sample as SAA000677"	2016/11/29	2016/12/5
PRA000017	SAA000637	ST003	9606			E-03	"Homo sapiens"	Human	2003							Asia	Japan	Ehime	32.88472222	34.30166667	132.0125	133.6930556	Female	Adipose	77								"59 y.o."	"Acute lymphocytic leukemia"																													"Measenteric fat; Same sample as SAA000647"	2016/11/29	2016/12/5
PRA000017	SAA000638	ST003	9606			E-05	"Homo sapiens"	Human	2004							Asia	Japan	Ehime	32.88472222	34.30166667	132.0125	133.6930556	Female	Adipose	70								"53 y.o."	"Acute myelocytic leukemia "																													"Measenteric fat; Same sample as SAA000649"	2016/11/29	2016/12/5
PRA000017	SAA000639	ST003	9606			E-06	"Homo sapiens"	Human	2004							Asia	Japan	Ehime	32.88472222	34.30166667	132.0125	133.6930556	Female	Adipose	50								"69 y.o."	"Carcinoma of the gallbladder "																													"Measenteric fat; Same sample as SAA000650"	2016/11/29	2016/12/5
PRA000017	SAA000640	ST003	9606			E-07	"Homo sapiens"	Human	2004							Asia	Japan	Ehime	32.88472222	34.30166667	132.0125	133.6930556	Female	Adipose	58								"72 y.o."	"Hepatic insufficiency, liver cirrhosis "																													"Measenteric fat; Same sample as SAA000651"	2016/11/29	2016/12/5
PRA000017	SAA000641	ST003	9606			E-17	"Homo sapiens"	Human	2004							Asia	Japan	Ehime	32.88472222	34.30166667	132.0125	133.6930556	Female	Adipose	75								"62 y.o."	"Multiple systemic atrophy "																													"Measenteric fat; Same sample as SAA000660"	2016/11/29	2016/12/5
PRA000017	SAA000642	ST003	9606			212	"Homo sapiens"	Human	2003							Asia	Japan	Kanto	34.917714	36.28333333	138.7113889	140.857758	Female	Adipose	81								"62 y.o."	"Breast cancer"																													"Measenteric fat; Same sample as SAA000674"	2016/11/29	2016/12/5
PRA000017	SAA000643	ST003	9606			E-18	"Homo sapiens"	Human	2004							Asia	Japan	Ehime	32.88472222	34.30166667	132.0125	133.6930556	Female	Adipose	73								"76 y.o."	"Gastric cancer, lung cancer "																													"Measenteric fat; Same sample as SAA000661"	2016/11/29	2016/12/5
PRA000017	SAA000644	ST003	9606			E-19	"Homo sapiens"	Human	2004							Asia	Japan	Ehime	32.88472222	34.30166667	132.0125	133.6930556	Female	Adipose	75								"71 y.o."	"Breast cancer, lymphoangitis carcinomatosa, idiopathic interstitial pneumonia "																													"Measenteric fat; Same sample as SAA000662"	2016/11/29	2016/12/5
PRA000017	SAA000645	ST003	9606			218	"Homo sapiens"	Human	2003							Asia	Japan	Kanto	34.917714	36.28333333	138.7113889	140.857758	Female	Adipose	60								"83 y.o."	"Lung cancer"																													"Measenteric fat; Same sample as SAA000678"	2016/11/29	2016/12/5
PRA000017	SAA000646	ST003	9606			220	"Homo sapiens"	Human	2003							Asia	Japan	Kanto	34.917714	36.28333333	138.7113889	140.857758	Female	Adipose	66								"109 y.o."	"Senile deterioration"																													"Measenteric fat; Same sample as SAA000680"	2016/11/29	2016/12/5
PRA000032	SAA001968	ST004	9737	es-BANK	EW04115		"Stenella coeruleoalba"	"Striped dolphin"	1978	12	19					Asia	Japan	"Taiji, Wakayama"	33.54416667	33.62305833	135.885	136.0180583	Male	Blubber	36.05		132	kg	227	cm	"Body length"	Matured	"11.5 y.o."																															2017/6/9	2017/6/9
PRA000032	SAA001969	ST004	9737	es-BANK	EW04116		"Stenella coeruleoalba"	"Striped dolphin"	1978	12	19					Asia	Japan	"Taiji, Wakayama"	33.54416667	33.62305833	135.885	136.0180583	Male	Blubber	49.24		160	kg	230	cm	"Body length"	Matured	"17.5 y.o."																															2017/6/9	2017/6/9
PRA000032	SAA001970	ST004	9737	es-BANK	EW04157		"Stenella coeruleoalba"	"Striped dolphin"	1979	12	15					Asia	Japan	"Taiji, Wakayama"	33.54416667	33.62305833	135.885	136.0180583	Male	Blubber	55				235	cm	"Body length"	Matured	"19.5 y.o."																															2017/6/9	2017/6/9
PRA000032	SAA001971	ST004	9737	es-BANK	EW04174		"Stenella coeruleoalba"	"Striped dolphin"	1979	12	15					Asia	Japan	"Taiji, Wakayama"	33.54416667	33.62305833	135.885	136.0180583	Male	Blubber	73.54				239	cm	"Body length"	Matured	"18.5 y.o."																															2017/6/9	2017/6/9
PRA000032	SAA001972	ST004	9737	es-BANK	EW04180		"Stenella coeruleoalba"	"Striped dolphin"	1979	12	15					Asia	Japan	"Taiji, Wakayama"	33.54416667	33.62305833	135.885	136.0180583	Male	Blubber	90.98				230	cm	"Body length"	Matured	"18.5 y.o."																															2017/6/9	2017/6/9
PRA000032	SAA001973	ST004	9737	es-BANK	EW04186		"Stenella coeruleoalba"	"Striped dolphin"	1979	12	15					Asia	Japan	"Taiji, Wakayama"	33.54416667	33.62305833	135.885	136.0180583	Male	Blubber	67.17				233	cm	"Body length"	Matured	"19.5 y.o."																															2017/6/9	2017/6/9
PRA000032	SAA001974	ST004	9737	es-BANK	EW04438		"Stenella coeruleoalba"	"Striped dolphin"	1986	12	9					Asia	Japan	"Taiji, Wakayama"	33.54416667	33.62305833	135.885	136.0180583	Male	Blubber	55.93						"Body length"		"20.5 y.o."																															2017/6/9	2017/6/9
PRA000032	SAA001975	ST004	9737	es-BANK	EW04439		"Stenella coeruleoalba"	"Striped dolphin"	1986	12	9					Asia	Japan	"Taiji, Wakayama"	33.54416667	33.62305833	135.885	136.0180583	Male	Blubber	46.75				228	cm	"Body length"		"9.5 y.o."																															2017/6/9	2017/6/9
PRA000032	SAA001976	ST004	9737	es-BANK	EW04500		"Stenella coeruleoalba"	"Striped dolphin"	1986	12	9					Asia	Japan	"Taiji, Wakayama"	33.54416667	33.62305833	135.885	136.0180583	Male	Blubber	54				251	cm	"Body length"		"31.5 y.o."																															2017/6/9	2017/6/9
PRA000032	SAA001977	ST004	9737	es-BANK	EW04534		"Stenella coeruleoalba"	"Striped dolphin"	1992	8	3					"Pacific Ocean"		"Pacific Ocean"	37.2		147.55		Male	Blubber	62.26				226	cm	"Body length"																																	2017/6/9	2017/6/9
PRA000032	SAA001978	ST004	9737	es-BANK	EW04539		"Stenella coeruleoalba"	"Striped dolphin"	1992	8	8					"Pacific Ocean"		"Pacific Ocean"	36.95		151.6666667		Male	Blubber	56.05				231	cm	"Body length"																																	2017/6/9	2017/6/9
PRA000032	SAA001979	ST004	9737	es-BANK	EW04547		"Stenella coeruleoalba"	"Striped dolphin"	1992	8	10					"Pacific Ocean"		"Pacific Ocean"	36.93333333		154.3		Male	Blubber	64.74				226	cm	"Body length"																																	2017/6/9	2017/6/9
PRA000032	SAA001980	ST004	9737	es-BANK	EW04548		"Stenella coeruleoalba"	"Striped dolphin"	1992	8	11					"Pacific Ocean"		"Pacific Ocean"	37.25		154.4833333		Male	Blubber	45.91				226	cm	"Body length"																																	2017/6/9	2017/6/9
PRA000032	SAA001981	ST004	9737	es-BANK	EW04557		"Stenella coeruleoalba"	"Striped dolphin"	1992	11	22					"Pacific Ocean"		"Pacific Ocean"	33.54999		136.0666667		Male	Blubber	28.43				235	cm	"Body length"																																	2017/6/9	2017/6/9
PRA000032	SAA001982	ST004	9737	es-BANK	EW04559		"Stenella coeruleoalba"	"Striped dolphin"	1992	11	23					"Pacific Ocean"		"Pacific Ocean"	33.48333333		136.19999		Male	Blubber	71.5				230	cm	"Body length"																																	2017/6/9	2017/6/9
PRA000032	SAA001983	ST004	9737	es-BANK	EW04566	SD1	"Stenella coeruleoalba"	"Striped dolphin"	2003	3	30					Asia	Japan	"Gogo-shima, Ehime"	33.86462778	33.929025	132.6527333	132.6982167	Male	Blubber	56.2		155	kg	230.8	cm	"Body length"																																	2017/6/9	2017/6/9
PRA000032	SAA001984	ST004	9737	es-BANK	EW04567	SD2	"Stenella coeruleoalba"	"Striped dolphin"	2003	3	30					Asia	Japan	"Gogo-shima, Ehime"	33.86462778	33.929025	132.6527333	132.6982167	Female	Blubber	56.2		105	kg	223	cm	"Body length"																																	2017/6/9	2017/6/9
PRA000032	SAA001985	ST004	9737	es-BANK	EW04568	SD3	"Stenella coeruleoalba"	"Striped dolphin"	2003	4	1					Asia	Japan	"Gogo-shima, Ehime"	33.86462778	33.929025	132.6527333	132.6982167	Male	Blubber	58.4		150	kg	237.6	cm	"Body length"																																	2017/6/9	2017/6/9
PRA000032	SAA001986	ST004	9737	es-BANK	EW04569	SD4	"Stenella coeruleoalba"	"Striped dolphin"	2003	4	1					Asia	Japan	"Gogo-shima, Ehime"	33.86462778	33.929025	132.6527333	132.6982167	Male	Blubber	49.8		155	kg	232	cm	"Body length"																																	2017/6/9	2017/6/9
PRA000032	SAA001987	ST004	9737	es-BANK	EW04570	SD5	"Stenella coeruleoalba"	"Striped dolphin"	2003	4	1					Asia	Japan	"Gogo-shima, Ehime"	33.86462778	33.929025	132.6527333	132.6982167	Male	Blubber	44.1		135	kg	231	cm	"Body length"																																	2017/6/9	2017/6/9
PRA000032	SAA001988	ST004	9737	es-BANK	EW04571	SD6	"Stenella coeruleoalba"	"Striped dolphin"	2003	4	1					Asia	Japan	"Gogo-shima, Ehime"	33.86462778	33.929025	132.6527333	132.6982167	Male	Blubber	54.4		150	kg	236.5	cm	"Body length"																																	2017/6/9	2017/6/9
PRA000032	SAA001989	ST004	9737	es-BANK	EW04567	SD2	"Stenella coeruleoalba"	"Striped dolphin"	2003	3	30					Asia	Japan	"Gogo-shima, Ehime"	33.86462778	33.929025	132.6527333	132.6982167	Female	Brain	9.86		105	kg	223	cm	"Body length"																																	2017/6/9	2017/6/9
PRA000032	SAA001990	ST004	9737	es-BANK	EW04568	SD3	"Stenella coeruleoalba"	"Striped dolphin"	2003	4	1					Asia	Japan	"Gogo-shima, Ehime"	33.86462778	33.929025	132.6527333	132.6982167	Male	Brain	15.47		150	kg	237.6	cm	"Body length"																																	2017/6/9	2017/6/9
PRA000032	SAA001991	ST004	9737	es-BANK	EW04570	SD5	"Stenella coeruleoalba"	"Striped dolphin"	2003	4	1					Asia	Japan	"Gogo-shima, Ehime"	33.86462778	33.929025	132.6527333	132.6982167	Male	Brain	11.57		135	kg	231	cm	"Body length"																																	2017/6/9	2017/6/9
PRA000032	SAA001992	ST004	9737	es-BANK	EW04566	SD1	"Stenella coeruleoalba"	"Striped dolphin"	2003	3	30					Asia	Japan	"Gogo-shima, Ehime"	33.86462778	33.929025	132.6527333	132.6982167	Male	Liver	2.41		155	kg	230.8	cm	"Body length"																																	2017/6/9	2017/6/9
PRA000032	SAA001993	ST004	9737	es-BANK	EW04567	SD2	"Stenella coeruleoalba"	"Striped dolphin"	2003	3	30					Asia	Japan	"Gogo-shima, Ehime"	33.86462778	33.929025	132.6527333	132.6982167	Female	Liver	2.95		105	kg	223	cm	"Body length"																																	2017/6/9	2017/6/9
PRA000032	SAA001994	ST004	9737	es-BANK	EW04568	SD3	"Stenella coeruleoalba"	"Striped dolphin"	2003	4	1					Asia	Japan	"Gogo-shima, Ehime"	33.86462778	33.929025	132.6527333	132.6982167	Male	Liver	2.85		150	kg	237.6	cm	"Body length"																																	2017/6/9	2017/6/9
PRA000032	SAA001995	ST004	9737	es-BANK	EW04569	SD4	"Stenella coeruleoalba"	"Striped dolphin"	2003	4	1					Asia	Japan	"Gogo-shima, Ehime"	33.86462778	33.929025	132.6527333	132.6982167	Male	Liver	3.43		155	kg	232	cm	"Body length"																																	2017/6/9	2017/6/9
PRA000032	SAA001996	ST004	9737	es-BANK	EW04570	SD5	"Stenella coeruleoalba"	"Striped dolphin"	2003	4	1					Asia	Japan	"Gogo-shima, Ehime"	33.86462778	33.929025	132.6527333	132.6982167	Male	Liver	2.55		135	kg	231	cm	"Body length"																																	2017/6/9	2017/6/9
PRA000032	SAA001997	ST004	9737	es-BANK	EW04571	SD6	"Stenella coeruleoalba"	"Striped dolphin"	2003	4	1					Asia	Japan	"Gogo-shima, Ehime"	33.86462778	33.929025	132.6527333	132.6982167	Male	Liver	2.8		150	kg	236.5	cm	"Body length"																																	2017/6/9	2017/6/9
PRA000032	SAA001998	ST004	9737	es-BANK	EW04566	SD1	"Stenella coeruleoalba"	"Striped dolphin"	2003	3	30					Asia	Japan	"Gogo-shima, Ehime"	33.86462778	33.929025	132.6527333	132.6982167	Male	Muscle	0.36		155	kg	230.8	cm	"Body length"																																	2017/6/9	2017/6/9
PRA000032	SAA001999	ST004	9737	es-BANK	EW04567	SD2	"Stenella coeruleoalba"	"Striped dolphin"	2003	3	30					Asia	Japan	"Gogo-shima, Ehime"	33.86462778	33.929025	132.6527333	132.6982167	Female	Muscle	0.5		105	kg	223	cm	"Body length"																																	2017/6/9	2017/6/9
PRA000032	SAA002000	ST004	9737	es-BANK	EW04568	SD3	"Stenella coeruleoalba"	"Striped dolphin"	2003	4	1					Asia	Japan	"Gogo-shima, Ehime"	33.86462778	33.929025	132.6527333	132.6982167	Male	Muscle	0.47		150	kg	237.6	cm	"Body length"																																	2017/6/9	2017/6/9
PRA000032	SAA002001	ST004	9737	es-BANK	EW04569	SD4	"Stenella coeruleoalba"	"Striped dolphin"	2003	4	1					Asia	Japan	"Gogo-shima, Ehime"	33.86462778	33.929025	132.6527333	132.6982167	Male	Muscle	0.54		155	kg	232	cm	"Body length"																																	2017/6/9	2017/6/9
PRA000032	SAA002002	ST004	9737	es-BANK	EW04570	SD5	"Stenella coeruleoalba"	"Striped dolphin"	2003	4	1					Asia	Japan	"Gogo-shima, Ehime"	33.86462778	33.929025	132.6527333	132.6982167	Male	Muscle	0.5		135	kg	231	cm	"Body length"																																	2017/6/9	2017/6/9
PRA000032	SAA002003	ST004	9737	es-BANK	EW04571	SD6	"Stenella coeruleoalba"	"Striped dolphin"	2003	4	1					Asia	Japan	"Gogo-shima, Ehime"	33.86462778	33.929025	132.6527333	132.6982167	Male	Muscle	0.69		150	kg	236.5	cm	"Body length"																																	2017/6/9	2017/6/9
PRA000042	SAA002375	ST009	6550			"Uljin A"	"Mytilus edulis"	"Blue mussel"	2005							Asia	Korea	Uljin	36.648131	37.145258	129.36385	129.477521		"Whole soft tissue"	0.78				"45 - 70"	mm	"Shell length"																																"n=36 Pooled; Less industrial activity"	2017/9/27	2017/9/27
PRA000042	SAA002376	ST009	6550			"Ganggu_Yandok M-3"	"Mytilus edulis"	"Blue mussel"	2005							Asia	Korea	"Ganggu, Yandok"	36.355654	36.363704	129.380696	129.393991		"Whole soft tissue"	1.7				"35 - 46"	mm	"Shell length"																																"n=10 Pooled; Less industrial activity"	2017/9/27	2017/9/27
PRA000042	SAA002377	ST009	6550			"Yeongil Bay_Pohang M-2"	"Mytilus edulis"	"Blue mussel"	2005							Asia	Korea	"Yeongil Bay, Pohang"	35.991998	36.105747	129.383822	129.551267		"Whole soft tissue"	0.93				"42 - 52"	mm	"Shell length"																																"n=50 Pooled; Industrial complex"	2017/9/27	2017/9/27
PRA000042	SAA002378	ST009	6550			Guryongpo	"Mytilus edulis"	"Blue mussel"	2005							Asia	Korea	Guryongpo	35.982171	35.99088	129.552113	129.567192		"Whole soft tissue"	1.5				"45 - 58"	mm	"Shell length"																																"n=58 Pooled; Less industrial activity"	2017/9/27	2017/9/27
PRA000042	SAA002379	ST009	6550			"Welseong B"	"Mytilus edulis"	"Blue mussel"	2005							Asia	Korea	Welseong	35.71249	35.744088	129.473832	129.480208		"Whole soft tissue"	1.8				"53 - 68"	mm	"Shell length"																																"n=49 Pooled; Nuclear power plant"	2017/9/27	2017/9/27
PRA000042	SAA002380	ST009	6550			"Ulsan Bay_M-8"	"Mytilus edulis"	"Blue mussel"	2005							Asia	Korea	"Ulsan Bay"	35.471723	35.543636	129.356992	129.412547		"Whole soft tissue"	1				"54 - 77"	mm	"Shell length"																																"n=42 Pooled; Industrial complex"	2017/9/27	2017/9/27
PRA000042	SAA002381	ST009	6550			"Ulsan Bay_M-6"	"Mytilus edulis"	"Blue mussel"	2005							Asia	Korea	"Ulsan Bay"	35.471723	35.543636	129.356992	129.412547		"Whole soft tissue"	2.1				"45 - 65"	mm	"Shell length"																																"n=42 Pooled; Industrial complex"	2017/9/27	2017/9/27
PRA000042	SAA002382	ST009	6550			"Onsan Bay_M-1"	"Mytilus edulis"	"Blue mussel"	2005							Asia	Korea	"Onsan Bay"	35.438997	35.469979	129.341166	129.370395		"Whole soft tissue"	0.81				"55 - 71"	mm	"Shell length"																																"n=49 Pooled; Industrial complex"	2017/9/27	2017/9/27
PRA000042	SAA002383	ST009	6550			"Onsan Bay_M-2"	"Mytilus edulis"	"Blue mussel"	2005							Asia	Korea	"Onsan Bay"	35.438997	35.469979	129.341166	129.370395		"Whole soft tissue"	1.8				"50 - 70"	mm	"Shell length"																																"n=43 Pooled; Industrial complex"	2017/9/27	2017/9/27
PRA000042	SAA002384	ST009	6550			"Kori_Ulju County A"	"Mytilus edulis"	"Blue mussel"	2005							Asia	Korea	"Kori, Ulju County"	35.318071	35.331722	129.28175	129.312848		"Whole soft tissue"	2.1				"45 - 65"	mm	"Shell length"																																"n=44 Pooled; Nuclear power plant"	2017/9/27	2017/9/27
PRA000042	SAA002385	ST009	6550			"Busan Bay_M-1"	"Mytilus edulis"	"Blue mussel"	2005							Asia	Korea	"Busan Bay"	35.031915	35.129124	128.946326	129.126502		"Whole soft tissue"	2.3				"40 - 55"	mm	"Shell length"																																"n=10 Pooled; Industrial complex"	2017/9/27	2017/9/27
PRA000042	SAA002386	ST009	6550			Wonmunnpo_M-1	"Mytilus edulis"	"Blue mussel"	2005							Asia	Korea	Wonmunnpo	34.762668	34.970661	128.310296	128.477854		"Whole soft tissue"	2				"46 - 82"	mm	"Shell length"																																"n=32 Pooled; Farming areas"	2017/9/27	2017/9/27
PRA000042	SAA002387	ST009	6550			"Kohyonsong Bay_Geoje M-3"	"Mytilus edulis"	"Blue mussel"	2005							Asia	Korea	"Kohyonsong Bay, Geoje"	34.825577	35.033289	128.463717	128.750763		"Whole soft tissue"	1.4				"53 - 62"	mm	"Shell length"																																"n=37 Pooled; Shipyard, Farming areas"	2017/9/27	2017/9/27
PRA000042	SAA002388	ST009	6550			"Okpo Bay_M-2"	"Mytilus edulis"	"Blue mussel"	2005							Asia	Korea	"Okpo Bay"	34.883997	34.904103	128.696106	128.720357		"Whole soft tissue"	1.2				"51 - 81"	mm	"Shell length"																																"n=22 Pooled; Repairing shipyard"	2017/9/27	2017/9/27
PRA000042	SAA002389	ST009	6550			"Masan Bay_M-2"	"Mytilus edulis"	"Blue mussel"	2005							Asia	Korea	"Masan Bay"	35.137817	35.211717	128.587008	128.607937		"Whole soft tissue"	0.75				"38 - 62"	mm	"Shell length"																																"n=32 Pooled; Industrial complex"	2017/9/27	2017/9/27
PRA000042	SAA002390	ST009	6550			"Haengam Bay_Jinhae"	"Mytilus edulis"	"Blue mussel"	2005							Asia	Korea	"Haengam Bay, Jinhae"	35.096831	35.12546	128.67755	128.702301		"Whole soft tissue"	1.2				"41 - 58"	mm	"Shell length"																																"n=39 Pooled; Industrial area"	2017/9/27	2017/9/27
PRA000042	SAA002391	ST009	6550			"Gwangyang Bay"	"Mytilus edulis"	"Blue mussel"	2005							Asia	Korea	"Gwangyang Bay"	34.901103	34.965817	127.578645	127.76671		"Whole soft tissue"	0.86				"46 - 66"	mm	"Shell length"																																"n=44 Pooled; Industrial complex"	2017/9/27	2017/9/27
PRA000042	SAA002392	ST009	6550			"Gamak Bay_Yeosu"	"Mytilus edulis"	"Blue mussel"	2005							Asia	Korea	"Gamak Bay, Yeosu"	34.404401	34.888577	127.511499	127.802703		"Whole soft tissue"	1.3				"33 - 57"	mm	"Shell length"																																"n=10 Pooled; Coastal protected area"	2017/9/27	2017/9/27
PRA000042	SAA002393	ST009	6550			"Sacheon Bay_Sacheon"	"Mytilus edulis"	"Blue mussel"	2005							Asia	Korea	"Sacheon Bay, Sacheon"	35.023727	35.079191	128.019806	128.059989		"Whole soft tissue"	0.72				"37 - 55"	mm	"Shell length"																																"n=75 Pooled; Thermoelectric power plant"	2017/9/27	2017/9/27
PRA000042	SAA002394	ST009	6550			"Shihwa Lake_Incheon"	"Mytilus edulis"	"Blue mussel"	2005							Asia	Korea	"Shihwa Lake, Incheon"	37.253175	37.329087	126.578865	126.744541		"Whole soft tissue"	1.3				"35 - 67"	mm	"Shell length"																																"n=10 Pooled; Industrial area"	2017/9/27	2017/9/27
PRA000042	SAA002395	ST009	6550			"Garorim Bay_Dangjin"	"Mytilus edulis"	"Blue mussel"	2005							Asia	Korea	"Garorim Bay, Dangjin"	36.795087	37.060206	126.413168	126.856741		"Whole soft tissue"	1.2				"50 - 87"	mm	"Shell length"																																"n=17 Pooled; Farming area"	2017/9/27	2017/9/27
PRA000042	SAA002396	ST009	6550			"Chunsu Bay_Hongseong"	"Mytilus edulis"	"Blue mussel"	2005							Asia	Korea	"Chunsu Bay, Hongseong"	36.520935	36.591548	126.456191	126.49465		"Whole soft tissue"	0.95				"46 - 64"	mm	"Shell length"																																"n=46 Pooled; Influx of migratory birds"	2017/9/27	2017/9/27
PRA000079	SAA004498	ST023				TP-1_53	Sediment	"Sediment Core"	2002	6	6					Asia	Japan	"Tokyo Bay"	35.58666667		139.8783333						17.65	"g wet"															13				"0 - 0.05"						81	12.3									"Ignition loss(%):at 600 ℃, 2h; Depositional age (year)(by <sup>210</sup>Pb method): 1998; Bulk dens(g/cm3): 1.11"	2018/11/8	2018/11/8
PRA000079	SAA004499	ST023				TP-1_56	Sediment	"Sediment Core"	2002	6	6					Asia	Japan	"Tokyo Bay"	35.58666667		139.8783333						15.86	"g wet"															13				"0.05 - 0.1"						73.8	11.3									"Ignition loss(%):at 600 ℃, 2h; Depositional age (year)(by <sup>210</sup>Pb method): 1989; Bulk dens(g/cm3): 11.16"	2018/11/8	2018/11/8
PRA000079	SAA004500	ST023				TP-1_59	Sediment	"Sediment Core"	2002	6	6					Asia	Japan	"Tokyo Bay"	35.58666667		139.8783333						15.7	"g wet"															13				"0.1 - 0.15"						73.9	10.8									"Ignition loss(%):at 600 ℃, 2h; Depositional age (year)(by <sup>210</sup>Pb method): 1979; Bulk dens(g/cm3): 11.17"	2018/11/8	2018/11/8
PRA000079	SAA004501	ST023				TP-1_62	Sediment	"Sediment Core"	2002	6	6					Asia	Japan	"Tokyo Bay"	35.58666667		139.8783333						16.7	"g wet"															13				"0.15 - 0.2"						70.9	9.7									"Ignition loss(%):at 600 ℃, 2h; Depositional age (year)(by <sup>210</sup>Pb method): 1968; Bulk dens(g/cm3): 11.19"	2018/11/8	2018/11/8
PRA000079	SAA004502	ST023				TP-1_67	Sediment	"Sediment Core"	2002	6	6					Asia	Japan	"Tokyo Bay"	35.58666667		139.8783333						16.36	"g wet"															13				"0.25 - 0.3"						67.9	8.2									"Ignition loss(%):at 600 ℃, 2h; Depositional age (year)(by <sup>210</sup>Pb method): 1943; Bulk dens(g/cm3): 11.22"	2018/11/8	2018/11/8
PRA000079	SAA004503	ST023				TP-1_69	Sediment	"Sediment Core"	2002	6	6					Asia	Japan	"Tokyo Bay"	35.58666667		139.8783333						16	"g wet"															13				"0.3 - 0.35"						66.5	7.8									"Ignition loss(%):at 600 ℃, 2h; Depositional age (year)(by <sup>210</sup>Pb method): 1930; Bulk dens(g/cm3): 11.23"	2018/11/8	2018/11/8
PRA000079	SAA004504	ST023				TP-1_71	Sediment	"Sediment Core"	2002	6	6					Asia	Japan	"Tokyo Bay"	35.58666667		139.8783333						17.25	"g wet"															13				"0.35 - 0.4"						65.4	7.8									"Ignition loss(%):at 600 ℃, 2h; Depositional age (year)(by <sup>210</sup>Pb method): 1915; Bulk dens(g/cm3): 11.23"	2018/11/8	2018/11/8
PRA000079	SAA004505	ST023				TP-4_106	Sediment	"Sediment Core"	2002	6	6					Asia	Japan	"Tokyo Bay"	35.545		139.9133333																						20				"0 - 0.05"						84.5	13.8									"Ignition loss(%):at 600 ℃, 2h; Depositional age (year)(by <sup>210</sup>Pb method): 2000; Bulk dens(g/cm3): 11.09"	2018/11/8	2018/11/8
PRA000079	SAA004506	ST023				TP-4_109	Sediment	"Sediment Core"	2002	6	6					Asia	Japan	"Tokyo Bay"	35.545		139.9133333																						20				"0.05 - 0.1"						77.9	12.5									"Ignition loss(%):at 600 ℃, 2h; Depositional age (year)(by <sup>210</sup>Pb method): 1995; Bulk dens(g/cm3): 11.14"	2018/11/8	2018/11/8
PRA000079	SAA004507	ST023				TP-4_111	Sediment	"Sediment Core"	2002	6	6					Asia	Japan	"Tokyo Bay"	35.545		139.9133333																						20				"0.1 - 0.15"						77.4	12.2									"Ignition loss(%):at 600 ℃, 2h; Depositional age (year)(by <sup>210</sup>Pb method): 1988; Bulk dens(g/cm3): 11.14"	2018/11/8	2018/11/8
PRA000079	SAA004508	ST023				TP-4_116	Sediment	"Sediment Core"	2002	6	6					Asia	Japan	"Tokyo Bay"	35.545		139.9133333																						20				"0.15 - 0.2"						77.3	11.9									"Ignition loss(%):at 600 ℃, 2h; Depositional age (year)(by <sup>210</sup>Pb method): 1982; Bulk dens(g/cm3): 11.14"	2018/11/8	2018/11/8
PRA000079	SAA004509	ST023				TP-4_118	Sediment	"Sediment Core"	2002	6	6					Asia	Japan	"Tokyo Bay"	35.545		139.9133333																						20				"0.2 - 0.25"						76.4	10.7									"Ignition loss(%):at 600 ℃, 2h; Depositional age (year)(by <sup>210</sup>Pb method): 1975; Bulk dens(g/cm3): 11.15"	2018/11/8	2018/11/8
PRA000079	SAA004510	ST023				TP-4_119	Sediment	"Sediment Core"	2002	6	6					Asia	Japan	"Tokyo Bay"	35.545		139.9133333																						20				"0.25 - 0.3"						76.6	11									"Ignition loss(%):at 600 ℃, 2h; Depositional age (year)(by <sup>210</sup>Pb method): 1968; Bulk dens(g/cm3): 11.15"	2018/11/8	2018/11/8
PRA000079	SAA004511	ST023				TP-4_121	Sediment	"Sediment Core"	2002	6	6					Asia	Japan	"Tokyo Bay"	35.545		139.9133333																						20				"0.3 - 0.35"						73.8	10.1									"Ignition loss(%):at 600 ℃, 2h; Depositional age (year)(by <sup>210</sup>Pb method): 1961; Bulk dens(g/cm3): 11.18"	2018/11/8	2018/11/8
PRA000079	SAA004512	ST023				TP-4_126	Sediment	"Sediment Core"	2002	6	6					Asia	Japan	"Tokyo Bay"	35.545		139.9133333																						20				"0.4 - 0.45"						75.3	9.9									"Ignition loss(%):at 600 ℃, 2h; Depositional age (year)(by <sup>210</sup>Pb method): 1945; Bulk dens(g/cm3): 11.16"	2018/11/8	2018/11/8
PRA000079	SAA004513	ST023				TP-5_29	Sediment	"Sediment Core"	2002	6	5					Asia	Japan	"Tokyo Bay"	35.52833333		139.9783333						15.25	"g wet"															19				"0 - 0.05"						81.9	12.4									"Ignition loss(%):at 600 ℃, 2h; Depositional age (year)(by <sup>210</sup>Pb method): 1999; Bulk dens(g/cm3): 11.12"	2018/11/8	2018/11/8
PRA000079	SAA004514	ST023				TP-5_30	Sediment	"Sediment Core"	2002	6	5					Asia	Japan	"Tokyo Bay"	35.52833333		139.9783333						15.03	"g wet"															19				"0.05 - 0.1"						76.2	12.2									"Ignition loss(%):at 600 ℃, 2h; Depositional age (year)(by <sup>210</sup>Pb method): 1992; Bulk dens(g/cm3): 11.16"	2018/11/8	2018/11/8
PRA000079	SAA004515	ST023				TP-5_35	Sediment	"Sediment Core"	2002	6	5					Asia	Japan	"Tokyo Bay"	35.52833333		139.9783333						15.16	"g wet"															19				"0.1 - 0.15"						75.1	11.3									"Ignition loss(%):at 600 ℃, 2h; Depositional age (year)(by <sup>210</sup>Pb method): 1984; Bulk dens(g/cm3): 11.17"	2018/11/8	2018/11/8
PRA000079	SAA004516	ST023				TP-5_36	Sediment	"Sediment Core"	2002	6	5					Asia	Japan	"Tokyo Bay"	35.52833333		139.9783333						15.12	"g wet"															19				"0.15 - 0.2"						74.6	11.2									"Ignition loss(%):at 600 ℃, 2h; Depositional age (year)(by <sup>210</sup>Pb method): 1975; Bulk dens(g/cm3): 11.17"	2018/11/8	2018/11/8
PRA000079	SAA004517	ST023				TP-5_39	Sediment	"Sediment Core"	2002	6	5					Asia	Japan	"Tokyo Bay"	35.52833333		139.9783333						15.92	"g wet"															19				"0.2 - 0.25"						71.1	9.9									"Ignition loss(%):at 600 ℃, 2h; Depositional age (year)(by <sup>210</sup>Pb method): 1966; Bulk dens(g/cm3): 11.2"	2018/11/8	2018/11/8
PRA000079	SAA004518	ST023				TP-5_43	Sediment	"Sediment Core"	2002	6	5					Asia	Japan	"Tokyo Bay"	35.52833333		139.9783333						15.41	"g wet"															19				"0.3 - 0.35"						67.9	9									"Ignition loss(%):at 600 ℃, 2h; Depositional age (year)(by <sup>210</sup>Pb method): 1945; Bulk dens(g/cm3): 11.24"	2018/11/8	2018/11/8
PRA000079	SAA004519	ST023				TP-5_45	Sediment	"Sediment Core"	2002	6	5					Asia	Japan	"Tokyo Bay"	35.52833333		139.9783333						15.22	"g wet"															19				"0.35 - 0.4"						66.7	8.5									"Ignition loss(%):at 600 ℃, 2h; Depositional age (year)(by <sup>210</sup>Pb method): 1933; Bulk dens(g/cm3): 11.25"	2018/11/8	2018/11/8
PRA000080	SAA004526	ST009	6564	es-BANK	EF05630	St.1_Oys-37	"Crassostrea sp."	Oyster	2005	5	14					Asia	Japan	"Ishikari-gawa River mouth, Hokkaido"	43.25803333	43.27386389	141.3631639	141.3721861		"Whole soft tissue"	1.2				"0.9 - 10.2 "	cm	"Shell length"																																"Pooled; Sampling location: St. 1"	2018/11/19	2018/11/19
PRA000080	SAA004527	ST009	29158	es-BANK	EF04165	St.1_Mus-03	"Mytilus galloprovincialis"	"Blue mussel"	2005	5	14					Asia	Japan	"Ishikari-gawa River, Hokkaido"	43.20676667	43.52913889	141.3299361	141.8824194		"Whole soft tissue"	1.1				"1.4 - 6.4"	cm	"Shell length"																																"Pooled; Sampling location: St. 1"	2018/11/19	2018/11/19
PRA000080	SAA004528	ST009	6564	es-BANK	EF05641	St.2_Oys-48	"Crassostrea sp."	Oyster	2005	11	10					Asia	Japan	"Aomori Port, Aomori"	40.83063333	40.86621111	140.6878139	140.837075		"Whole soft tissue"	1				"4 - 7.6 "	cm	"Shell length"																																"Pooled; Sampling location: St. 2"	2018/11/19	2018/11/19
PRA000080	SAA004529	ST009	6564	es-BANK	EF05637	St.3_Oys-44	"Crassostrea sp."	Oyster	2005	11	8					Asia	Japan	"Kamaishi Port, Iwate"	39.26333333	39.28611111	141.8983333	141.9038889		"Whole soft tissue"	1.4				"6.9 - 14.6 "	cm	"Shell length"																																"Pooled; Sampling location: St. 3"	2018/11/19	2018/11/19
PRA000080	SAA004530	ST009	6564	es-BANK	EF05636	St.4_Oys-43	"Crassostrea sp."	Oyster	2005	11	8					Asia	Japan	"Kesennuma Port, Miyagi"	38.90527778	38.90666667	141.5766667	141.5766667		"Whole soft tissue"	1.7				"4.3 - 8.9 "	cm	"Shell length"																																"Pooled; Sampling location: St. 4"	2018/11/19	2018/11/19
PRA000080	SAA004531	ST009	29158	es-BANK	EF06324	St.4_Mus-06	"Mytilus galloprovincialis"	"Blue mussel"	2005	11	8					Asia	Japan	"Kesennuma Port, Miyagi"	38.90527778	38.90666667	141.5766667	141.5766667		"Whole soft tissue"	2.4				"2.7 - 6.2"	cm	"Shell length"																																"Pooled; Sampling location: St. 4"	2018/11/19	2018/11/19
PRA000080	SAA004532	ST009	6564	es-BANK	EF05600	St.5_Oys-07	"Crassostrea sp."	Oyster	2005	8	6					Asia	Japan	"Toyama Port, Toyama"	36.76083333	36.77861111	137.1911111	137.2647222		"Whole soft tissue"	2.6				"2.3 - 8.2 "	cm	"Shell length"																																"Pooled; Sampling location: St. 5"	2018/11/19	2018/11/19
PRA000080	SAA004533	ST009	6564	es-BANK	EF05604	St.6_Oys-11	"Crassostrea sp."	Oyster	2005	8	7					Asia	Japan	"Tsuruga, Fukui"	35.65083333	35.80722222	135.9586111	136.1111111		"Whole soft tissue"	2.7				"1.6 - 6.5 "	cm	"Shell length"																																"Pooled; Sampling location: St. 6"	2018/11/19	2018/11/19
PRA000080	SAA004534	ST009	6564	es-BANK	EF05603	St.7_Oys-10	"Crassostrea sp."	Oyster	2005	6	29					Asia	Japan	"Tokyo Bay, Odaiba, Tokyo"	35.58166667	35.6375	139.7597222	139.855		"Whole soft tissue"	1.3				"1.6 - 6.5 "	cm	"Shell length"																																"Pooled; Sampling location: St. 7"	2018/11/19	2018/11/19
PRA000080	SAA004535	ST009	6564	es-BANK	EF05612	St.8_Oys-19	"Crassostrea sp."	Oyster	2005	8	6					Asia	Japan	"Ota-gawa River Mouth, Shizuoka"	34.65722222	34.68888889	137.8836111	137.9130556		"Whole soft tissue"	2				"1.6 - 6.7 "	cm	"Shell length"																																"Pooled; Sampling location: St. 8"	2018/11/19	2018/11/19
PRA000080	SAA004536	ST009	6564	es-BANK	EF05602	St.9_Oys-09	"Crassostrea sp."	Oyster	2005	8	8					Asia	Japan	"Nagoya Port, Aichi"	35.07444444	35.08638889	136.8711111	136.8886111		"Whole soft tissue"	1.7				"2.4 - 7.6 "	cm	"Shell length"																																"Pooled; Sampling location: St. 9"	2018/11/19	2018/11/19
PRA000080	SAA004537	ST009	6564	es-BANK	EF05610	St.10_Oys-17	"Crassostrea sp."	Oyster	2005	6	14					Asia	Japan	"Osaka South Port, Osaka"	34.60666667	34.67138889	135.3105556	135.4486111		"Whole soft tissue"	2.8				"0.7 - 6.7 "	cm	"Shell length"																																"Pooled; Sampling location: St. 10"	2018/11/19	2018/11/19
PRA000080	SAA004538	ST009	6564	es-BANK	EF05616	St.11_Oys-23	"Crassostrea sp."	Oyster	2005	6	14					Asia	Japan	"Front of Kaiyukan, Osaka"	34.63943333	34.672325	135.3870278	135.4400861		"Whole soft tissue"	2				"0.9 - 6.9 "	cm	"Shell length"																																"Pooled; Sampling location: St. 11"	2018/11/19	2018/11/19
PRA000080	SAA004539	ST009	6564	es-BANK	EF05595	St.12_Oys-02	"Crassostrea sp."	Oyster	2005	5	30					Asia	Japan	"Kobe Port, Hyogo"	34.56083333	34.62083333	135.0525	135.3125		"Whole soft tissue"	3.4				"2.8 - 8.7 "	cm	"Shell length"																																"Pooled; Sampling location: St. 12"	2018/11/19	2018/11/19
PRA000080	SAA004540	ST009	6564	es-BANK	EF05617	St.13_Oys-24	"Crassostrea sp."	Oyster	2005	6	18					Asia	Japan	"Himeji, Hyogo"	34.713075	34.77719722	134.5728972	134.7587194		"Whole soft tissue"	3.3				"1.3 - 10.7 "	cm	"Shell length"																																"Pooled; Sampling location: St. 13"	2018/11/19	2018/11/19
PRA000080	SAA004541	ST009	29158	es-BANK	EF04166	St.13_Mus-01	"Mytilus galloprovincialis"	"Blue mussel"	2005	6	18					Asia	Japan	"Himeji, Hyogo"	34.713075	34.77719722	134.5728972	134.7587194		"Whole soft tissue"	1.9				"6.6 - 9.3"	cm	"Shell length"																																"Pooled; Sampling location: St. 13"	2018/11/19	2018/11/19
PRA000080	SAA004542	ST009	6564	es-BANK	EF05618	St.14_Oys-25	"Crassostrea sp."	Oyster	2005	6	25					Asia	Japan	"Ujina Port, Hiroshima"	34.33361111	34.36138889	132.3836111	132.4969444		"Whole soft tissue"	3.2				"2.2 - 7.9 "	cm	"Shell length"																																"Pooled; Sampling location: St. 14"	2018/11/19	2018/11/19
PRA000080	SAA004543	ST009	6564	es-BANK	EF05628	St.15_Oys-35	"Crassostrea sp."	Oyster	2005	6	24					Asia	Japan	"Kure Port, Hiroshima"	34.23583333	34.23972222	132.5455556	132.5569444		"Whole soft tissue"	2.7				"3 - 8.1 "	cm	"Shell length"																																"Pooled; Sampling location: St. 15"	2018/11/19	2018/11/19
PRA000080	SAA004544	ST009	6564	es-BANK	EF05625	St.16_Oys-32	"Crassostrea sp."	Oyster	2005	6	26					Asia	Japan	"Edomari Port, Hofu, Yamaguchi"	34.03217778	34.04163333	131.5970333	131.6019		"Whole soft tissue"	2.9				"1.2 - 8.3 "	cm	"Shell length"																																"Pooled; Sampling location: St. 16"	2018/11/19	2018/11/19
PRA000080	SAA004545	ST009	6564	es-BANK	EF05623	St.17_Oys-30	"Crassostrea sp."	Oyster	2005	6	26					Asia	Japan	"Hagi Port, Yamagichi"	34.41831667	34.42974722	131.3650889	131.4070722		"Whole soft tissue"	3.1				"2.6 - 9 "	cm	"Shell length"																																"Pooled; Sampling location: St. 17"	2018/11/19	2018/11/19
PRA000080	SAA004546	ST009	29158	es-BANK	EF04167	St.17_Mus-02	"Mytilus galloprovincialis"	"Blue mussel"	2005	6	26					Asia	Japan	"Hagi Port, Yamagichi"	34.41831667	34.42974722	131.3650889	131.4070722		"Whole soft tissue"	1.1				"4.3 - 8.7"	cm	"Shell length"																																"Pooled; Sampling location: St. 17"	2018/11/19	2018/11/19
PRA000080	SAA004547	ST009	6564	es-BANK	EF05615	St.18_Oys-22	"Crassostrea sp."	Oyster	2005	6	25					Asia	Japan	"Horie Port, Ehime"	33.9206	33.93695	132.7529972	132.7605028		"Whole soft tissue"	2.7				"3.7 - 7.5 "	cm	"Shell length"																																"Pooled; Sampling location: St. 18"	2018/11/19	2018/11/19
PRA000080	SAA004548	ST009	6564	es-BANK	EF05605	St.19_Oys-12	"Crassostrea sp."	Oyster	2005	6	24					Asia	Japan	"Kochi Port, Kochi"	33.45055556	33.48083333	133.5405556	133.615		"Whole soft tissue"	3.5				"1.9 - 7.1 "	cm	"Shell length"																																"Pooled; Sampling location: St. 19"	2018/11/19	2018/11/19
PRA000080	SAA004549	ST009	6564	es-BANK	EF05594	St.20_Oys-01	"Crassostrea sp."	Oyster	2005	7	13					Asia	Japan	"Front of Fukuoka Dome, Fukuoka"	33.59751111	33.59799444	130.3552306	130.3633833		"Whole soft tissue"	2.6				"2.8 - 5.7 "	cm	"Shell length"																																"Pooled; Sampling location: St. 20"	2018/11/19	2018/11/19
PRA000080	SAA004550	ST009	6564	es-BANK	EF05627	St.21_Oys-34	"Crassostrea sp."	Oyster	2005	7	31					Asia	Japan	"Minamata Bay, Kumamoto"	32.14694444	32.24333333	130.2266667	130.3525		"Whole soft tissue"	2.2				"1 - 8.3 "	cm	"Shell length"																																"Pooled; Sampling location: St. 21"	2018/11/19	2018/11/19
PRA000080	SAA004551	ST009	6564	es-BANK	EF05633	St.22_Oys-40	"Crassostrea sp."	Oyster	2005	10	11					Asia	Japan	"Okutakejima Port, Okinawa"	26.12583333	26.13194444	127.7691667	127.7797222		"Whole soft tissue"	2.2				"2.2 - 6.5 "	cm	"Shell length"																																"Pooled; Sampling location: St. 22"	2018/11/19	2018/11/19
PRA000086	SAA004921	ST026				GH13-1-2	Soil	"Surface soil (e-waste burning spot/open-burning area)"	2013	8						Africa	Ghana	"Agbogbloshie e-waste site"	5.5519917		-0.2283139						0.61	g																											0-0.02									2019/4/11	2019/4/11
PRA000086	SAA004922	ST026				GH13-1-6	Soil	"Surface soil (e-waste burning spot/open-burning area)"	2013	8						Africa	Ghana	"Agbogbloshie e-waste site"	5.5522944		-0.2280222						0.95	g																											0-0.02									2019/4/11	2019/4/11
PRA000086	SAA004923	ST026				GH13-1-10	Soil	"Surface soil (e-waste burning spot/open-burning area)"	2013	8						Africa	Ghana	"Agbogbloshie e-waste site"	5.5521194		-0.22815						1.09	g																											0-0.02									2019/4/11	2019/4/11
PRA000086	SAA004924	ST026				GH13-2-5	Soil	"Surface soil (e-waste burning spot/open-burning area)"	2013	8						Africa	Ghana	"Agbogbloshie e-waste site"	5.5517222		-0.2277556						0.64	g																											0-0.02									2019/4/11	2019/4/11
PRA000086	SAA004925	ST026				GH13-2-8	Soil	"Surface soil (e-waste burning spot/open-burning area)"	2013	8						Africa	Ghana	"Agbogbloshie e-waste site"	5.5514417		-0.2280528						0.53	g																											0-0.02									2019/4/11	2019/4/11
PRA000086	SAA004926	ST026				GH13-2-10	Soil	"Surface soil (e-waste burning spot/open-burning area)"	2013	8						Africa	Ghana	"Agbogbloshie e-waste site"	5.5516778		-0.2279028						1	g																											0-0.02									2019/4/11	2019/4/11
PRA000086	SAA004927	ST026				GH13-3-1	Soil	"Surface soil (e-waste burning spot/open-burning area)"	2013	8						Africa	Ghana	"Agbogbloshie e-waste site"	5.550925		-0.2264861						0.86	g																											0-0.02									2019/4/11	2019/4/11
PRA000086	SAA004928	ST026				GH13-3-6	Soil	"Surface soil (e-waste burning spot/open-burning area)"	2013	8						Africa	Ghana	"Agbogbloshie e-waste site"	5.5508333		-0.2261222						0.52	g																											0-0.02									2019/4/11	2019/4/11
PRA000086	SAA004929	ST026				GH13-3-9	Soil	"Surface soil (e-waste burning spot/open-burning area)"	2013	8						Africa	Ghana	"Agbogbloshie e-waste site"	5.5512694		-0.2262194						0.53	g																											0-0.02									2019/4/11	2019/4/11
PRA000086	SAA004930	ST026				GH13-4-1	Soil	"Surface soil (e-waste burning spot/open-burning area)"	2013	8						Africa	Ghana	"Agbogbloshie e-waste site"	5.5509722		-0.2253361						0.57	g																											0-0.02									2019/4/11	2019/4/11
PRA000086	SAA004931	ST026				GH13-4-3	Soil	"Surface soil (e-waste burning spot/open-burning area)"	2013	8						Africa	Ghana	"Agbogbloshie e-waste site"	5.5513417		-0.2252583						0.31	g																											0-0.02									2019/4/11	2019/4/11
PRA000086	SAA004932	ST026				GH13-4-8	Soil	"Surface soil (e-waste burning spot/open-burning area)"	2013	8						Africa	Ghana	"Agbogbloshie e-waste site"	5.5503333		-0.225325						0.83	g																											0-0.02									2019/4/11	2019/4/11
PRA000086	SAA004933	ST026				GH13-5-6	Soil	"Surface soil (common solid waste burning spot)"	2013	8						Africa	Ghana	"Agbogbloshie e-waste site"	5.554225		-0.2287972						0.71	g																											0-0.02									2019/4/11	2019/4/11
PRA000086	SAA004934	ST026				GH13-5-8	Soil	"Surface soil (common solid waste burning spot)"	2013	8						Africa	Ghana	"Agbogbloshie e-waste site"	5.5540417		-0.2285306						0.59	g																											0-0.02									2019/4/11	2019/4/11
PRA000086	SAA004935	ST026				GH13-5-10	Soil	"Surface soil (common solid waste burning spot)"	2013	8						Africa	Ghana	"Agbogbloshie e-waste site"	5.5539556		-0.228775						0.61	g																											0-0.02									2019/4/11	2019/4/11
PRA000086	SAA004936	ST026				GH13-6-1	Soil	"Surface soil (dismantling area)"	2013	8						Africa	Ghana	"Agbogbloshie e-waste site"	5.5540167		-0.2250833						1.06	g																											0-0.02									2019/4/11	2019/4/11
PRA000086	SAA004937	ST026				GH13-6-2	Soil	"Surface soil (dismantling area)"	2013	8						Africa	Ghana	"Agbogbloshie e-waste site"	5.5539056		-0.2249972						1.08	g																											0-0.02									2019/4/11	2019/4/11
PRA000086	SAA004938	ST026				GH13-6-3	Soil	"Surface soil (dismantling area)"	2013	8						Africa	Ghana	"Agbogbloshie e-waste site"	5.5537222		-0.2247944						1.9	g																											0-0.02									2019/4/11	2019/4/11
PRA000086	SAA004939	ST026				GH13-6-4	Soil	"Surface soil (dismantling area)"	2013	8						Africa	Ghana	"Agbogbloshie e-waste site"	5.55355		-0.224725						1.08	g																											0-0.02									2019/4/11	2019/4/11
PRA000086	SAA004940	ST026				GH13-6-6	Soil	"Surface soil (dismantling area)"	2013	8						Africa	Ghana	"Agbogbloshie e-waste site"	5.5535389		-0.2250806						1.06	g																											0-0.02									2019/4/11	2019/4/11
PRA000086	SAA004941	ST026				GH13-6-7	Soil	"Surface soil (dismantling area)"	2013	8						Africa	Ghana	"Agbogbloshie e-waste site"	5.5534		-0.2252806						1.08	g																											0-0.02									2019/4/11	2019/4/11
PRA000086	SAA004942	ST026				GH13-6-8	Soil	"Surface soil (dismantling area)"	2013	8						Africa	Ghana	"Agbogbloshie e-waste site"	5.5532167		-0.2255861						1.1	g																											0-0.02									2019/4/11	2019/4/11
PRA000086	SAA004943	ST026				GH13-6-10	Soil	"Surface soil (dismantling area)"	2013	8						Africa	Ghana	"Agbogbloshie e-waste site"	5.5527861		-0.2254028						0.45	g																											0-0.02									2019/4/11	2019/4/11
PRA000086	SAA004944	ST026				GH13-6-14	Soil	"Surface soil (dismantling area)"	2013	8						Africa	Ghana	"Agbogbloshie e-waste site"	5.5521333		-0.22605						0.49	g																											0-0.02									2019/4/11	2019/4/11
PRA000086	SAA004945	ST026				GH13-6-15	Soil	"Surface soil (dismantling area)"	2013	8						Africa	Ghana	"Agbogbloshie e-waste site"	5.5524361		-0.2264417						1.04	g																											0-0.02									2019/4/11	2019/4/11
PRA000086	SAA004946	ST026				GH13-7-2	Soil	"Surface soil (dismantling area)"	2013	8						Africa	Ghana	"Agbogbloshie e-waste site"	5.5533306		-0.226825						1.1	g																											0-0.02									2019/4/11	2019/4/11
PRA000086	SAA004947	ST026				GH13-7-5	Soil	"Surface soil (dismantling area)"	2013	8						Africa	Ghana	"Agbogbloshie e-waste site"	5.5539361		-0.2266694						1.02	g																											0-0.02									2019/4/11	2019/4/11
PRA000086	SAA004948	ST026				GH13-7-7	Soil	"Surface soil (dismantling area)"	2013	8						Africa	Ghana	"Agbogbloshie e-waste site"	5.5544		-0.2266306						1.13	g																											0-0.02									2019/4/11	2019/4/11
PRA000086	SAA004949	ST026				GH13-7-9	Soil	"Surface soil (Other area)"	2013	8						Africa	Ghana	"Agbogbloshie e-waste site"	5.5546167		-0.22615						1.22	g																											0-0.02									2019/4/11	2019/4/11
PRA000086	SAA004950	ST026				GH13-102	Soil	"Surface soil (dismantling area)"	2013	8						Africa	Ghana	"Agbogbloshie e-waste site"	5.5527972		-0.2262111						1.1	g																											0-0.02									2019/4/11	2019/4/11
PRA000086	SAA004951	ST026				GH13-109	Soil	"Surface soil (e-waste burning spot/open-burning area)"	2013	8						Africa	Ghana	"Agbogbloshie e-waste site"	5.5520278		-0.2250028						0.45	g																											0-0.02									2019/4/11	2019/4/11
PRA000086	SAA004952	ST026				GH13-110	Soil	"Surface soil (Other area)"	2013	8						Africa	Ghana	"Agbogbloshie e-waste site"	5.5500056		-0.2256389						0.56	g																											0-0.02									2019/4/11	2019/4/11
PRA000086	SAA004953	ST026				GH13-113	Soil	"Surface soil (Other area)"	2013	8						Africa	Ghana	"Agbogbloshie e-waste site"	5.5489194		-0.2252556						0.79	g																											0-0.02									2019/4/11	2019/4/11
PRA000086	SAA004954	ST026				GH13-114	Soil	"Surface soil (Other area)"	2013	8						Africa	Ghana	"Agbogbloshie e-waste site"	5.5499139		-0.2261417						0.41	g																											0-0.02									2019/4/11	2019/4/11
PRA000086	SAA004955	ST026				GH13-116	Soil	"Surface soil (Other area)"	2013	8						Africa	Ghana	"Agbogbloshie e-waste site"	5.5504083		-0.2264917						0.75	g																											0-0.02									2019/4/11	2019/4/11
PRA000086	SAA004956	ST026				GH13-119	Soil	"Surface soil (e-waste burning spot/open-burning area)"	2013	8						Africa	Ghana	"Agbogbloshie e-waste site"	5.5515778		-0.226775						1.03	g																											0-0.02									2019/4/11	2019/4/11
PRA000086	SAA004957	ST026				GH13-123	Soil	"Surface soil (Other area)"	2013	8						Africa	Ghana	"Agbogbloshie e-waste site"	5.5523111		-0.2287444						0.96	g																											0-0.02									2019/4/11	2019/4/11
PRA000086	SAA004958	ST026				GH13-125	Soil	"Surface soil (Other area)"	2013	8						Africa	Ghana	"Agbogbloshie e-waste site"	5.5527778		-0.2292556						0.64	g																											0-0.02									2019/4/11	2019/4/11
PRA000086	SAA004959	ST026				GH13-126	Soil	"Surface soil (Other area)"	2013	8						Africa	Ghana	"Agbogbloshie e-waste site"	5.55405		-0.2293278						0.52	g																											0-0.02									2019/4/11	2019/4/11
PRA000086	SAA004960	ST026				GH13-128	Soil	"Surface soil (Other area)"	2013	8						Africa	Ghana	"Agbogbloshie e-waste site"	5.5540528		-0.227775						0.79	g																											0-0.02									2019/4/11	2019/4/11
PRA000086	SAA004961	ST026				GH13-129	Soil	"Surface soil (Other area)"	2013	8						Africa	Ghana	"Agbogbloshie e-waste site"	5.5544083		-0.2273972						0.58	g																											0-0.02									2019/4/11	2019/4/11
PRA000101	SAA007139	ST009	157729			SP-5-O_2017	"Saccostrea mordax"	"Small rock oyster"	2017	8	4					Asia	Japan	"Gusuku, Nago City, Okinawa"	26.58727778		127.9801389			"Whole soft tissues"	2.1																																							2020/6/8	2020/6/8
PRA000101	SAA007140	ST009	157729			SP-7-O_2017	"Saccostrea mordax"	"Small rock oyster"	2017	8	4					Asia	Japan	"Onna Village, Okinawa"	26.50908333		127.8738333			"Whole soft tissues"	2.1																																							2020/6/8	2020/6/8
PRA000101	SAA007141	ST009	157729			SP-8-O_2017	"Saccostrea mordax"	"Small rock oyster"	2017	8	4					Asia	Japan	"Onna Village, Okinawa"	26.44736111		127.8030278			"Whole soft tissues"	1.8																																							2020/6/8	2020/6/8
PRA000101	SAA007142	ST009	157729			SP-9-O_2017	"Saccostrea mordax"	"Small rock oyster"	2017	8	4					Asia	Japan	"Onna Village, Okinawa"	26.438		127.7631667			"Whole soft tissues"	1.9																																							2020/6/8	2020/6/8
PRA000101	SAA007143	ST009	157729			SP-10-O_2017	"Saccostrea mordax"	"Small rock oyster"	2017	8	4					Asia	Japan	"Uruma City, Okinawa"	26.42780556		127.8323333			"Whole soft tissues"	2.5																																							2020/6/8	2020/6/8
PRA000101	SAA007144	ST009	157729			SP-11-O_2017	"Saccostrea mordax"	"Small rock oyster"	2017	8	4					Asia	Japan	"Okinawa City, Okinawa"	26.3235		127.8351111			"Whole soft tissues"	5.1																																							2020/6/8	2020/6/8
PRA000101	SAA007145	ST009	157729			SP-12-O_2017	"Saccostrea mordax"	"Small rock oyster"	2017	8	4					Asia	Japan	"Kadena Town, Okinawa"	26.36238889		127.7468889			"Whole soft tissues"	1.9																																							2020/6/8	2020/6/8
PRA000101	SAA007146	ST009	157729			SP-13-O_2017	"Saccostrea mordax"	"Small rock oyster"	2017	8	4					Asia	Japan	"Chatan Town, Okinawa"	26.32188889		127.755			"Whole soft tissues"	2.1																																							2020/6/8	2020/6/8
PRA000101	SAA007147	ST009	157729			SP-14-O_2017	"Saccostrea mordax"	"Small rock oyster"	2017	8	4					Asia	Japan	"Chatan Town, Okinawa"	26.29711111		127.7576944			"Whole soft tissues"	2.1																																							2020/6/8	2020/6/8
PRA000101	SAA007148	ST009	157729			SP-15-O_2017	"Saccostrea mordax"	"Small rock oyster"	2017	8	4					Asia	Japan	"Urasoe City, Okinawa"	26.27219444		127.7231111			"Whole soft tissues"	1.3																																							2020/6/8	2020/6/8
PRA000101	SAA007149	ST009	157729			SP-16-O_2017	"Saccostrea mordax"	"Small rock oyster"	2017	8	4					Asia	Japan	"Urasoe City, Okinawa"	26.24461111		127.6795			"Whole soft tissues"	1.9																																							2020/6/8	2020/6/8
PRA000101	SAA007150	ST009	157729			SP-17-O_2017	"Saccostrea mordax"	"Small rock oyster"	2017	8	4					Asia	Japan	"Naha City, Okinawa"	26.23080556		127.6803889			"Whole soft tissues"	2.4																																							2020/6/8	2020/6/8
PRA000101	SAA007151	ST009	157729			SP-18-O_2017	"Saccostrea mordax"	"Small rock oyster"	2017	8	4					Asia	Japan	"Naha City, Okinawa"	26.22702778		127.68075			"Whole soft tissues"	1.3																																							2020/6/8	2020/6/8
PRA000101	SAA007152	ST009	157729			SP-19-O_2017	"Saccostrea mordax"	"Small rock oyster"	2017	8	4					Asia	Japan	"Naha City, Okinawa"	26.22719444		127.6808056			"Whole soft tissues"	2.1																																							2020/6/8	2020/6/8
PRA000101	SAA007153	ST009	157729			SP-20-O_2017	"Saccostrea mordax"	"Small rock oyster"	2017	8	4					Asia	Japan	"Naha City, Okinawa"	26.20869444		127.6753889			"Whole soft tissues"	1.8																																							2020/6/8	2020/6/8
PRA000101	SAA007154	ST009	157729			SP-21-O_2017	"Saccostrea mordax"	"Small rock oyster"	2017	8	4					Asia	Japan	"Nanjo City, Okinawa"	26.182		127.7786944			"Whole soft tissues"	2																																							2020/6/8	2020/6/8
PRA000101	SAA007155	ST009	157729			SP-22-O_2017	"Saccostrea mordax"	"Small rock oyster"	2017	8	4					Asia	Japan	"Itoman City, Okinawa"	26.12988889		127.6683056			"Whole soft tissues"	2.2																																							2020/6/8	2020/6/8
PRA000101	SAA007156	ST009	157729			SP-1-O_2018	"Saccostrea mordax"	"Small rock oyster"	2018	5	26					Asia	Japan	"Ginama, Kunigami Village, Okinawa"	26.84938889		128.2525			"Whole soft tissues"	1.2																																							2020/6/8	2020/6/8
PRA000101	SAA007158	ST009	157729			SP-4-O_2018	"Saccostrea mordax"	"Small rock oyster"	2018	5	26					Asia	Japan	"Ada, Kunigami Village, Okinawa"	26.74138889		128.3188056			"Whole soft tissues"	1.5																																							2020/6/8	2020/6/8
PRA000101	SAA007160	ST009	157729			SP-6-O_2018	"Saccostrea mordax"	"Small rock oyster"	2018	5	26					Asia	Japan	"Teima, Nago City, Okinawa"	26.55133333		128.0637222			"Whole soft tissues"	0.53																																							2020/6/8	2020/6/8
PRA000101	SAA007162	ST009	157729			SP-7-O_2018	"Saccostrea mordax"	"Small rock oyster"	2018	5	25					Asia	Japan	"Onna Village, Okinawa"	26.50908333		127.8738333			"Whole soft tissues"	1.4																																							2020/6/8	2020/6/8
PRA000101	SAA007164	ST009	157729			SP-12-O_2018	"Saccostrea mordax"	"Small rock oyster"	2018	5	25					Asia	Japan	"Kadena Town, Okinawa"	26.36238889		127.7468889			"Whole soft tissues"	1.6																																							2020/6/8	2020/6/8
PRA000101	SAA007166	ST009	157729			SP-22-O_2018	"Saccostrea mordax"	"Small rock oyster"	2018	5	25					Asia	Japan	"Kadena Town, Okinawa"	26.12988889		127.6683056			"Whole soft tissues"	1.2																																							2020/6/8	2020/6/8
PRA000101	SAA007168	ST009	157729			SP-2-O_2018	"Saccostrea mordax"	"Small rock oyster"	2018	5	26					Asia	Japan	"Kunigami Village, Okinawa"	26.84980556		128.2533056			"Whole soft tissues"	1.7																																							2020/6/8	2020/6/8
PRA000101	SAA007169	ST009	157729			SP-3-O_2018	"Saccostrea mordax"	"Small rock oyster"	2018	5	26					Asia	Japan	"Hentona, Kunigami Village, Okinawa"	26.74880556		128.1763889			"Whole soft tissues"	0.9																																							2020/6/8	2020/6/8
PRA000101	SAA007170	ST009	157729			SP-1-O_2019	"Saccostrea mordax"	"Small rock oyster"	2019	7	2					Asia	Japan	"Ginama, Kunigami Village, Okinawa"	26.84938889		128.2525			"Whole soft tissues"	2	82																																						2020/6/8	2020/6/8
PRA000101	SAA007174	ST009	157729			SP-20-O_2019	"Saccostrea mordax"	"Small rock oyster"	2019	7	3					Asia	Japan	"Naha City, Okinawa"	26.20869444		127.6753889			"Whole soft tissues"	0.62	90																																						2020/6/8	2020/6/8
PRA000101	SAA007178	ST009	157729			SP-5-O_2019	"Saccostrea mordax"	"Small rock oyster"	2019	7	2					Asia	Japan	"Nago City, Okinawa"	26.58727778		127.9801389			"Whole soft tissues"	1.8	82																																						2020/6/8	2020/6/8
PRA000101	SAA007180	ST009	157729			SP-10-O_2019	"Saccostrea mordax"	"Small rock oyster"	2019	7	2					Asia	Japan	"Uruma City, Okinawa"	26.42780556		127.8323333			"Whole soft tissues"	1.4	86																																						2020/6/8	2020/6/8
PRA000101	SAA007182	ST009	157729			SP-21-O_2019	"Saccostrea mordax"	"Small rock oyster"	2019	7	1					Asia	Japan	"Nanjo City, Okinawa"	26.182		127.7786944			"Whole soft tissues"	1.6	83																																						2020/6/8	2020/6/8
PRA000106	SAA007452	ST033				UI-H1	Air	"Air in an urban house"	2013	3	6			"39 days(Jan. 27_Mar.06)"		Asia	Vietnam	"Linh Dam Urban Area, Hoang Mai, Hanoi City"	20.96311111		105.8321389																																										"Samling: Bedroom of a 9th floor apartment, near window; Average temperature (Jan.-Mar. 2013):20 ℃; "	2020/10/12	2020/10/12
PRA000106	SAA007453	ST033				UI-H2	Air	"Air in an urban house"	2013	2	27			"31 days(Jan. 28_Feb.27)"		Asia	Vietnam	"Co Nhue Urban Area, Bac Tu Liem, Hanoi City"	21.06272222		105.7816389																																										"Sampling spot: Bedroom/living room of a 2nd floor apartment in urban area; Average temperature (Jan.-Mar. 2013):20 ℃"	2020/10/12	2020/10/12
PRA000106	SAA007454	ST033				UI-H3	Air	"Air in an urban house"	2013	2	27			"34 days(Jan. 25_Feb.27)"		Asia	Vietnam	"Van Quan Urban Area, Ha Dong, Hanoi City"	20.96527778		105.7718056																																										"Sampling spot: Living room on 2nd floor of a house in urban area; Average temperature (Jan.-Mar. 2013):20 ℃"	2020/10/12	2020/10/12
PRA000106	SAA007455	ST033				UI-OF	Air	"Air in an urban house"	2013	2	25			"33 days(Jan. 24_Feb.25)"		Asia	Vietnam	"VNU Univ. of Science, Thanh Xuan, Hanoi City"	20.28063889		105.808																																										"Sampling spot: University office on 3rd floor in urban area; Average temperature (Jan.-Mar. 2013):20 ℃"	2020/10/12	2020/10/12
PRA000106	SAA007456	ST029				UO-R	Air	"Air in urban residential area"	2013	2	25			"32 days(Jan. 25_Feb.25)"		Asia	Vietnam	"Le Van Luong Street, Thanh Xuan, Hanoi City"	21.00486111		105.8032222																																										"Sampling spot: Balcony on 4th floor of a house located in residential area with high population density; Average temperature (Jan.-Mar. 2013):20 ℃"	2020/10/12	2020/10/12
PRA000106	SAA007457	ST029				"UO-M "	Air	"Air in urban mixed land-use area"	2015	11	11			"38 days(Sep. 30_Nov.11)"		Asia	Vietnam	"VNU Univ. of Science, Thanh Xuan, Hanoi City"	20.28063889		105.808																																										"Sampling spot: Garden side of 3rd floor located in a mixed land-use area comprising institutional, residential and industrial (tobacco, rubber, soap) uses with high traffic density; Average temperature (Sep.-Nov. 2015):27 ℃"	2020/10/12	2020/10/12
PRA000106	SAA007458	ST029				ELV-0	Air	"Air in rural area"	2015	11	6			"39 days(Sep. 29_Nov.06)"		Asia	Vietnam	"Thuyen Village, Bac Giang City"	21.28063889		106.2333611																																										"Samling spot: Background garden of a rural house, far from ELV processing area; Average temperature (Sep.-Nov. 2015):27 ℃"	2020/10/12	2020/10/12
PRA000106	SAA007459	ST028				ELV-1	Air	"Air in semi-open ELV workshop"	2013	2	26			"48 days(Jan. 10_Feb.26)"		Asia	Vietnam	"Thuyen Village, Bac Giang City"	21.27836667		106.23105																																										"Sampling spot: Background semi-open workshops reinforced by steel frames and corrugated sheets and household backyards with ELV processing activities such as dismantling, metal scrapping, stockpiling vehicular parts, and disposing less valuable materials (e.g. by open burning); Average temperature (Jan.-Mar. 2013):20 ℃"	2020/10/12	2020/10/12
PRA000106	SAA007460	ST028				ELV-2	Air	"Air in semi-open ELV workshop"	2013	2	26			"48 days(Jan. 10_Feb.26)"		Asia	Vietnam	"Thuyen Village, Bac Giang City"	21.27981667		106.23165																																										"Sampling spot: Background semi-open workshops reinforced by steel frames and corrugated sheets and household backyards with ELV processing activities such as dismantling, metal scrapping, stockpiling vehicular parts, and disposing less valuable materials (e.g., by open burning); Average temperature (Jan.-Mar. 2013):20 ℃"	2020/10/12	2020/10/12
PRA000106	SAA007461	ST028				ELV-3	Air	"Air in semi-open ELV workshop"	2013	2	26			"48 days(Jan. 10_Feb.26)"		Asia	Vietnam	"Thuyen Village, Bac Giang City"	21.28038889		106.2339444																																										"Sampling spot: Background semi-open workshops reinforced by steel frames and corrugated sheets and household backyards with ELV processing activities such as dismantling, metal scrapping, stockpiling vehicular parts, and disposing less valuable materials (e.g., by open burning); Average temperature (Jan.-Mar. 2013):20 ℃"	2020/10/12	2020/10/12
PRA000106	SAA007462	ST028				PR	Air	"Air in semi-open plastic recycling facility"	2013	2	26			"49 days(Jan. 09_Feb.26)"		Asia	Vietnam	"Tan Cuong Commune, Thai Nguyen City"	21.53286111		105.7489722																																										"Sampling spot: Semi-open workshop with steel frames and corrugated sheets. Obsolete plastic products were crushed into small pieces by mechanical method and then pressed into a heated extruder for pelletization; Average temperature (Jan.-Mar. 2013):20 ℃"	2020/10/12	2020/10/12
PRA000106	SAA007463	ST028				OR-1	Air	"Air in semi-open oil refining facility"	2013	2	26			"49 days(Jan. 09_Feb.26)"		Asia	Vietnam	"Tan Cuong Commune, Thai Nguyen City"	21.53288889		105.7479167																																										"Sampling spot: Semi-open workshops with steel frames and corrugated sheets. Industrial and vehicular waste oils were collected, classified, and treated by chemical separation to recover original oils or to produce industrial burning oils; Average temperature (Jan.-Mar. 2013):20 ℃"	2020/10/12	2020/10/12
PRA000106	SAA007464	ST028				OR-2	Air	"Air in semi-open oil refining facility"	2013	2	26			"49 days(Jan. 09_Feb.26)"		Asia	Vietnam	"Tan Cuong Commune, Thai Nguyen City"	21.53288889		105.7479167																																										"Sampling spot: Semi-open workshops with steel frames and corrugated sheets. Industrial and vehicular waste oils were collected, classified, and treated by chemical separation to recover original oils or to produce industrial burning oils; Average temperature (Jan.-Mar. 2013):20 ℃"	2020/10/12	2020/10/12
PRA000106	SAA007465	ST028				RM-1	Air	"Air in semi-open rubber melting facility"	2013	2	26			"49 days(Jan. 09_Feb.26)"		Asia	Vietnam	"Tan Cuong Commune, Thai Nguyen City"	21.53216667		105.7494167																																										"Sampling spot: Semi-open workshops with steel frames and corrugated sheets. Rubber tires were pyrolized to recover carbon black and to produce industrial burning oils; Average temperature (Jan.-Mar. 2013):20 ℃"	2020/10/12	2020/10/12
PRA000106	SAA007466	ST028				RM-2	Air	"Air in semi-open rubber melting facility"	2013	2	26			"49 days(Jan. 09_Feb.26)"		Asia	Vietnam	"Tan Cuong Commune, Thai Nguyen City"	21.53216667		105.7494167																																										"Sampling spot: Semi-open workshops with steel frames and corrugated sheets. Rubber tires were pyrolized to recover carbon black and to produce industrial burning oils; Average temperature (Jan.-Mar. 2013):20 ℃"	2020/10/12	2020/10/12
PRA000107	SAA007467	ST031				HN-RD-1	Air	"Road dust (Urban)"	2016	8	10					Asia	Vietnam	"Tran Nhat Duat, Hoan Kiem, Hanoi"	21.03527778	21.03888889	105.8519444	105.8541667																																									"Pooled (n=4); Coodinates: 1_1:N 21.03888889  E 105.8519444; 1_2:N 21.03722222  E 105.8530556; 1_3:N 21.03666667  E 105.8536111; 1_4:N 21.03527778  E 105.8541667; Sampling spot: Residential/Commercial/Motorbikes and car repairing shops; Traffic: Asphalt, High traffic (bus, cars, motorbikes); "	2020/10/26	2020/10/26
PRA000107	SAA007468	ST031				HN-RD-3	Air	"Road dust (Urban)"	2016	8	8					Asia	Vietnam	"Le Thanh Tong (school yard), Hoan Kiem, Hanoi"	21.02083333	21.02416667	105.8575	105.8586111																																									"Pooled (n=4); Coodinates: 3_1:N 21.02416667  E 105.8575; 3_2:N 21.02083333  E 105.8586111; 3_3:N 21.02111111  E 105.8583333; 3_4:N 21.02083333  E 105.8583333; Sampling spot: Universities; Traffic: Concrete, Meium traffic, Car and motorbike park;"	2020/10/26	2020/10/26
PRA000107	SAA007469	ST031				HN-RD-8	Air	"Road dust (Urban)"	2016	9	16					Asia	Vietnam	"Tran Khanh Du, Hai Ba Trung, Hanoi"	21.01916667	21.02555556	105.8597222	105.8619444																																									"Pooled (n=4); Coodinates: 8_1:N 21.02555556  E 105.8597222; 8_2:N 21.02333333  E 105.8608333; 8_3:N 21.02166667  E 105.8613889; 8_4:N 21.01916667  E 105.8619444; Sampling spot: Low residential/Commercial/Constructing; Traffic: High traffic, Car park, Bus station; "	2020/10/26	2020/10/26
PRA000107	SAA007470	ST031				HN-RD-11	Air	"Road dust (Urban)"	2016	9	16					Asia	Vietnam	"Tran Khat Chan, Hai Ba Trung, Hanoi"	21.00861111	21.00916667	105.8533333	105.8561111																																									"Pooled (n=5); Coodinates: 11_1:N 21.00861111  E 105.8533333; 11_2:N 21.00861111  E 105.8536111; 11_3:N 21.00888889  E 105.855; 11_4:N 21.00916667  E 105.8555556; 11_5:N 21.00916667  E 105.8561111; Sampling spot: Residential/Commercial; Traffic: High traffic (bus, cars, motorbikes)/Car park; "	2020/10/26	2020/10/26
PRA000107	SAA007471	ST031				HN-RD-13	Air	"Road dust (Urban)"	2016	8	30					Asia	Vietnam	"Minh Khai, Hai Ba Trung, Hanoi"	20.995	20.99694444	105.8491667	105.8575																																									"Pooled (n=5); Coodinates: 13_1:N 20.99583333  E 105.85; 13_2:N 20.99694444  E 105.8491667; 13_3:N 20.99666667  E 105.8533333; 13_4:N 20.99555556  E 105.8538889; 13_5:N 20.995  E 105.8575; Sampling spot: Commercial/Residential/Schools/Local markets/Wood furniture shops; Traffic: High traffic (bus, cars, motorbikes); "	2020/10/26	2020/10/26
PRA000107	SAA007472	ST031				HN-RD-17	Air	"Road dust (Urban)"	2016	9	14					Asia	Vietnam	"Kim Ma, Ba Dinh, Hanoi"	21.03111111	21.03277778	105.8177778	105.8233333																																									"Pooled (n=5); Coodinates: 17_1:N 21.03166667  E 105.8233333; 17_2:N 21.03277778  E 105.8219444; 17_3:N 21.03111111  E 105.8208333; 17_4:N 21.03111111  E 105.8194444; 17_5:N 21.03111111  E 105.8177778; Sampling spot: Commercial/Residential/Office buildings; Traffic: High traffic (bus, cars, motorbikes); "	2020/10/26	2020/10/26
PRA000107	SAA007473	ST031				HN-RD-20	Air	"Road dust (Urban)"	2016	8	18					Asia	Vietnam	"Ton Duc Thang, Dong Da, Hanoi"	21.01972222	21.02944444	105.8305556	105.8355556																																									"Pooled (n=5); Coodinates: 20_1:N 21.02944444  E 105.8355556; 20_2:N 21.02944444  E 105.835; 20_3:N 21.02805556  E 105.8344444; 20_4:N 21.02138889  E 105.8313889; 20_5:N 21.01972222  E 105.8305556; Sampling spot: Commercial/Residential; Traffic: High traffic (cars, bus, motorbikes); "	2020/10/26	2020/10/26
PRA000107	SAA007474	ST031				HN-RD-22	Air	"Road dust (Urban)"	2016	9	14					Asia	Vietnam	"Nguyen Chi Thanh, Dong Da, Hanoi"	21.02388889	21.02833333	105.8105556	105.8122222																																									"Pooled (n=5); Coodinates: 22_1:N 21.02833333  E 105.8122222; 22_2:N 21.0275  E 105.8119444; 22_3:N 21.02666667  E 105.8116667; 22_4:N 21.02444444  E 105.8108333; 22_5:N 21.02388889  E 105.8105556; Sampling spot: Commercial/Residential; Traffic: High traffic (cars, bus, motorbikes); "	2020/10/26	2020/10/26
PRA000107	SAA007475	ST031				HN-RD-24	Air	"Road dust (Urban)"	2016	8	18					Asia	Vietnam	"Nguyen Luong Bang - Tay Son, Dong Da, Hanoi"	21.02722222	21.03222222	105.825	105.8280556																																									"Pooled (n=5); Coodinates: 24_1:N 21.03222222  E 105.8280556; 24_2:N 21.03083333  E 105.8275; 24_3:N 21.03  E 105.8266667; 24_4:N 21.02805556  E 105.8255556; 24_5:N 21.02722222  E 105.825; Sampling spot: Residential/Commercial/Near universities; Traffic:High traffic(cars, bus, motorbikes)"	2020/10/26	2020/10/26
PRA000107	SAA007476	ST031				HN-RD-26	Air	"Road dust (Urban)"	2016	9	16					Asia	Vietnam	"Giai Phong, Dong Da, Hanoi"	21.00194444	21.00472222	105.8413889	105.8413889																																									"Pooled (n=5); Coodinates: 26_1:N 21.00444444  E 105.8411111; 26_2:N 21.00472222  E 105.8413889; 26_3:N 21.00305556  E 105.8413889; 26_4:N 21.00194444  E 105.8413889; 26_5:N 21.00222222  E 105.8413889; Sampling spot: Residential/Commercial; Traffic:High traffic (bus, cars, motorbikes)/Giap Bat bus station; "	2020/10/26	2020/10/26
PRA000107	SAA007477	ST031				HN-RD-29	Air	"Road dust (Urban)"	2016	9	17					Asia	Vietnam	"Cau Giay, Cau Giay, Hanoi"	21.03333333	21.03694444	105.7894444	105.7922222																																									"Pooled (n=5); Coodinates: 29_1:N 21.03333333  E 105.7905556; 29_2:N 21.03361111  E 105.7894444; 29_3:N 21.03583333  E 105.7913889; 29_4:N 21.03611111  E 105.7919444; 29_5:N 21.03694444  E 105.7922222; Sampling spot: Residential/Commercial/Constructing; Traffic: High traffic (cars, bus, motorbikes); "	2020/10/26	2020/10/26
PRA000107	SAA007478	ST031				HN-RD-30	Air	"Road dust (Urban)"	2016	9	17					Asia	Vietnam	"Pham Van Dong, Cau Giay, Hanoi"	21.04722222	21.05111111	105.7811111	105.7816667																																									"Pooled (n=5); Coodinates: 30_1:N 21.04722222  E 105.7811111; 30_2:N 21.04805556  E 105.7813889; 30_3:N 21.04777778  E 105.7813889; 30_4:N 21.04972222  E 105.7816667; 30_5:N 21.05111111  E 105.7816667; Sampling spot: Residential/Commercial/Constructing; Traffic:High traffic (trucks, cars, motorbikes); "	2020/10/26	2020/10/26
PRA000107	SAA007479	ST031				HN-RD-33	Air	"Road dust (Urban)"	2016	9	17					Asia	Vietnam	"Pham Hung, Cau Giay, Hanoi"	21.03222222	21.03361111	105.7777778	105.78																																									"Pooled (n=5); Coodinates: 33_1:N 21.03361111  E 105.78; 33_2:N 21.03333333  E 105.7777778; 33_3:N 21.03361111  E 105.7780556; 33_4:N 21.03305556  E 105.7777778; 33_5:N 21.03222222  E 105.7797222; Sampling spot: Low residential/Highrise buildings; Traffic: High traffic (bus, cars, motorbikes);  My Dinh bus station; "	2020/10/26	2020/10/26
PRA000107	SAA007480	ST031				HN-RD-34	Air	"Road dust (Urban)"	2016	9	5					Asia	Vietnam	"Tran Duy Hung, Cau Giay, Hanoi"	21.01111111	21.0125	105.8	105.8016667																																									"Pooled (n=5); Coodinates: 34_1:N 21.01111111  E 105.8; 34_2:N 21.01138889  E 105.8002778; 34_3:N 21.0125  E 105.8016667; 34_4:N 21.01222222  E 105.8013889; 34_5:N 21.01166667  E 105.8008333; Sampling spot: Commercial/Residential; Traffic: High traffic (bus, cars, motorbikes); "	2020/10/26	2020/10/26
PRA000107	SAA007481	ST031				HN-RD-37	Air	"Road dust (Urban)"	2016	8	18					Asia	Vietnam	"Nguyen Trai (road), Thanh Xuan, Hanoi"	20.99694444	20.99972222	105.8111111	105.8152778																																									"Pooled (n=5); Coodinates: 37_1:N 20.99972222  E 105.8152778; 37_2:N 20.99861111  E 105.8130556; 37_3:N 20.99833333  E 105.8133333; 37_4:N 20.99722222  E 105.8113889; 37_5:N 20.99694444  E 105.8111111; Sampling spot: Residential/Commercial/Constructing; Traffic: High traffic (cars, bus, motorbikes); "	2020/10/26	2020/10/26
PRA000107	SAA007482	ST031				HN-RD-51	Air	"Road dust (Urban)"	2016	9	17					Asia	Vietnam	"Nguyen Van Cu, Long Bien, Hanoi"	21.04194444	21.04555556	105.8686111	105.8752778																																									"Pooled (n=5); Coodinates: 51_1:N 21.04222222  E 105.8705556; 51_2:N 21.04194444  E 105.8686111; 51_3:N 21.04305556  E 105.8688889; 51_4:N 21.04416667  E 105.8752778; 51_5:N 21.04555556  E 105.875; Sampling spot: Residential/Commercial; Traffic: High traffic (bus, cars, motorbikes); "	2020/10/26	2020/10/26
PRA000107	SAA007483	ST031				TN-RD-1	Air	"Road dust (Industrial zone)"	2016	9	7					Asia	Vietnam	"Cach Mang Thang 10, Thang Loi Ward, Song Cong City, Thai Nguyen province"	21.47583333	21.47638889	105.8311111	105.8319444																																									"Pooled (n=4); Coodinates: 1_1:N 21.47583333  E 105.8311111; 1_2:N 21.47611111  E 105.8313889; 1_3:N 21.47638889  E 105.8316667; 1_4:N 21.47638889  E 105.8319444; Sampling spot: Residential/Industrial (Song Cong I Industrial Park); Traffic: Asphalt (Main road);  Medium traffic (trucks, cars and motorbikes); "	2020/10/26	2020/10/26
PRA000107	SAA007484	ST031				TN-RD-2	Air	"Road dust (Industrial zone)"	2016	9	7					Asia	Vietnam	"Cach Mang Thang 10, Luong Chau Ward, Song Cong City, Thai Nguyen province"	21.47555556	21.47583333	105.8294444	105.8302778																																									"Pooled (n=4); Coodinates: 2_1:N 21.47583333  E 105.8302778; 2_2:N 21.47555556  E 105.83; 2_3:N 21.47555556  E 105.8297222; 2_4:N 21.47555556  E 105.8294444; Sampling spot: Residential/Industrial; Traffic: Medium traffic; "	2020/10/26	2020/10/26
PRA000107	SAA007485	ST031				TN-RD-3	Air	"Road dust (Industrial zone)"	2016	9	7					Asia	Vietnam	"3 Thang 2, Mo Che Ward, Song Cong City, Thai Nguyen province"	21.47388889	21.47388889	105.8277778	105.8283333																																									"Pooled (n=3); Coodinates: 3_1:N 21.47388889  E 105.8277778; 3_2:N 21.47388889  E 105.8280556; 3_3:N 21.47388889  E 105.8283333; Sampling spot: Residential/Industrial; Traffic: Medium traffic; "	2020/10/26	2020/10/26
PRA000107	SAA007486	ST031				TN-RD-4	Air	"Road dust (Industrial zone)"	2016	9	7					Asia	Vietnam	"3 Thang 2, Mo Che Ward, Song Cong City, Thai Nguyen province"	21.47	21.47	105.8277778	105.8280556																																									"Pooled (n=2); Coodinates: 4_1:N 21.47  E 105.8277778; 4_2:N 21.47  E 105.8280556; Sampling spot: Residential/Industrial; Traffic: Medium traffic; "	2020/10/26	2020/10/26
PRA000107	SAA007487	ST031				TN-RD-5	Air	"Road dust (Industrial zone)"	2016	9	7					Asia	Vietnam	"Cach Mang Thang 8, Thang Loi Ward, Song Cong City, Thai Nguyen province"	21.47138889	21.47166667	105.8425	105.8427778																																									"Pooled (n=2); Coodinates: 5_1:N 21.47166667  E 105.8425; 5_2:N 21.47138889  E 105.8427778; Sampling spot: Residential/Industrial; Traffic: Medium traffic; "	2020/10/26	2020/10/26
PRA000107	SAA007488	ST031				TN-RD-6	Air	"Road dust (Industrial zone)"	2016	9	7					Asia	Vietnam	"Cach Mang Thang 10, Bach Quang Ward, Song Cong City, Thai Nguyen province"	21.48222222		105.855																																										"Sampling spot: Residential/Industrial; Traffic: Medium traffic; "	2020/10/26	2020/10/26
PRA000107	SAA007489	ST031				TN-RD-7	Air	"Road dust (Industrial zone)"	2016	9	7					Asia	Vietnam	"Cach Mang Thang 10, Bach Quang Ward, Song Cong City, Thai Nguyen province"	21.48305556		105.8591667																																										"Sampling spot: Residential/Industrial; Traffic: Medium traffic; "	2020/10/26	2020/10/26
PRA000107	SAA007490	ST031				TN-RD-8	Air	"Road dust (Industrial zone)"	2016	9	7					Asia	Vietnam	"Cach Mang Thang 10, Bach Quang Ward, Song Cong City, Thai Nguyen province"	21.48166667	21.48222222	105.8663889	105.8663889																																									"Pooled (n=3); Coodinates: 8_1:N 21.48166667  E 105.8663889; 8_2:N 21.48194444  E 105.8663889; 8_3:N 21.48222222  E 105.8663889; Sampling spot: Residential/Industrial; Traffic: Medium traffic; "	2020/10/26	2020/10/26
PRA000107	SAA007491	ST031				TN-RD-9	Air	"Road dust (Industrial zone)"	2016	9	16					Asia	Vietnam	"Cach Mang Thang 10, Bach Quang Ward, Song Cong City, Thai Nguyen province"	21.48111111		105.8719444																																										"Sampling spot: Residential/Industrial; Traffic: Medium traffic; "	2020/10/26	2020/10/26
PRA000107	SAA007492	ST031				TN-RD-10	Air	"Road dust (Industrial zone)"	2016	9	16					Asia	Vietnam	"Cach Mang Thang 10, Bach Quang Ward, Song Cong City, Thai Nguyen province"	21.48166667		105.8697222																																										"Sampling spot: Residential/Industrial; Traffic: Medium traffic; "	2020/10/26	2020/10/26
PRA000107	SAA007493	ST031				BG-RD-1	Air	"Road dust (Rural)"	2016	8	10					Asia	Vietnam	"Way to rice fields, Mai Dinh Commune, Hiep Hoa District, Bac Giang province"	21.23611111	21.2375	105.9402778	105.9416667																																									"Pooled (n=5); Coodinates: 1_1:N 21.2375  E 105.9416667; 1_2:N 21.23722222  E 105.9413889; 1_3:N 21.23666667  E 105.9408333; 1_4:N 21.23638889  E 105.9408333; 1_5:N 21.23611111  E 105.9402778; Sampling spot: Agricultural/Residential; Traffic: Concrete, Low traffic (motorbikes); "	2020/10/26	2020/10/26
PRA000107	SAA007494	ST031				BG-RD-2	Air	"Road dust (Rural)"	2016	8	19					Asia	Vietnam	"Way to rice fields, Mai Dinh Commune, Hiep Hoa District, Bac Giang province"	21.24027778	21.24083333	105.9408333	105.9427778																																									"Pooled (n=5); Coodinates: 2_1:N 21.24083333  E 105.9427778; 2_2:N 21.24055556  E 105.9422222; 2_3:N 21.24055556  E 105.9416667; 2_4:N 21.24055556  E 105.9413889; 2_5:N 21.24027778  E 105.9408333; Sampling spot: Agricultural/Residential; Traffic: Concrete, Low traffic (motorbikes); "	2020/10/26	2020/10/26
PRA000107	SAA007495	ST031				BG-RD-3	Air	"Road dust (Rural)"	2016	8	19					Asia	Vietnam	"Way on rice fields, Mai Dinh Commune, Hiep Hoa District, Bac Giang province"	21.23583333	21.23694444	105.9444444	105.945																																									"Pooled (n=5); Coodinates: 3_1:N 21.23611111  E 105.945; 3_2:N 21.23583333  E 105.9447222; 3_3:N 21.23638889  E 105.9447222; 3_4:N 21.23666667  E 105.9444444; 3_5:N 21.23694444  E 105.9444444; Sampling spot: Residential, far from rice fields; Traffic: Concrete, Medium traffic (motorbikes);  "	2020/10/26	2020/10/26
PRA000107	SAA007496	ST031				BG-RD-5	Air	"Road dust (Rural)"	2016	8	27					Asia	Vietnam	"Way on rice fields, Mai Dinh Commune, Hiep Hoa District, Bac Giang province"	21.23722222	21.23944444	105.9386111	105.9405556																																									"Pooled (n=5); Coodinates: 5_1:N 21.23777778  E 105.9402778; 5_2:N 21.23722222  E 105.9405556; 5_3:N 21.23861111  E 105.9394444; 5_4:N 21.23888889  E 105.9391667; 5_5:N 21.23944444  E 105.9386111; Sampling spot: Agricultural; Traffic: Land, Low traffic; "	2020/10/26	2020/10/26
PRA000107	SAA007497	ST031				BG-RD-6	Air	"Road dust (Rural)"	2016	8	27					Asia	Vietnam	"Way on rice fields, Mai Dinh Commune, Hiep Hoa District, Bac Giang province"	21.23444444	21.235	105.9552778	105.9580556																																									"Pooled (n=5); Coodinates: 6_1:N 21.23444444  E 105.9561111; 6_2:N 21.23444444  E 105.9552778; 6_3:N 21.23444444  E 105.9569444; 6_4:N 21.23444444  E 105.9577778; 6_5:N 21.235  E 105.9580556; Sampling spot: Agricultural; Traffic: Land, Low traffic; "	2020/10/26	2020/10/26
PRA000121	SAA008817	ST035				WR-1F	Air	"Floor dust"	2019	9						Asia	Vietnam	"Bui Dau Village, Hung Yen Province"	20.93361111		106.0947222																																										"This dust sample mainly contained soil, sand, biological fragments and debris from recycling activities; Homogenized by passing through 250 μm sieves and stored at -20℃ until analysis; E-recyling area (Main activities: Manual dismantling, pastic shredding, storing; Working area characteristics: Steel frame, corrugated wall/roof, concrete floor; Input materials: E-waste (TV, radio, DVD player, Printed circuit board[PCB]), consumer products, automotive plastic parts; Output products: Plastic pellets, metals)"	2022/8/8	2022/8/8
PRA000121	SAA008818	ST035				WR-1E	Air	"Dust on end-of-life equipment surface"	2019	9						Asia	Vietnam	"Bui Dau Village, Hung Yen Province"	20.93361111		106.0947222																																										"This dust sample mainly contained soil, sand, biological fragments and debris from recycling activities; Homogenized by passing through 250 μm sieves and stored at -20℃ until analysis; E-recyling area (Main activities: Manual dismantling, pastic shredding, storing; Working area characteristics: Steel frame, corrugated wall/roof, concrete floor; Input materials: E-waste (TV, radio, DVD player, Printed circuit board[PCB]), consumer products, automotive plastic parts; Output products: Plastic pellets, metals)"	2022/8/8	2022/8/8
PRA000121	SAA008819	ST035				WR-2F	Air	"Floor dust"	2019	9						Asia	Vietnam	"Bui Dau Village, Hung Yen Province"	20.93444444		106.0936111																																										"This dust sample mainly contained soil, sand, biological fragments and debris from recycling activities; Homogenized by passing through 250 μm sieves and stored at -20℃ until analysis; E-recyling area (Main activities: Manual dismantling, pastic shredding, acid leaching, storing; Working area characteristics: Steel frame, brick wall, corrugated roof, concrete floor; Input materials: E-waste (home appliance), consumer products; Output products: Plastic pellets, metals)"	2022/8/8	2022/8/8
PRA000121	SAA008820	ST035				WR-3F	Air	"Floor dust"	2019	9						Asia	Vietnam	"Bui Dau Village, Hung Yen Province"	20.93444444		106.0919444																																										"This dust sample mainly contained soil, sand, biological fragments and debris from recycling activities; Homogenized by passing through 250 μm sieves and stored at -20℃ until analysis; E-recyling area (Main activities: Manual dismantling, storing; Working area characteristics: Steel frame, brick wall/floor, corrugated roof; Input materials: E-waste (CRT TV, DVD player, printer, PCB, water pump, electric generator); Output products: Metals)"	2022/8/8	2022/8/8
PRA000121	SAA008821	ST035				WR-4F	Air	"Floor dust"	2019	9						Asia	Vietnam	"Bui Dau Village, Hung Yen Province"	20.93222222		106.0983333																																										"This dust sample mainly contained soil, sand, biological fragments and debris from recycling activities; Homogenized by passing through 250 μm sieves and stored at -20℃ until analysis; E-recyling area (Main activities: Manual dismantling, plastic shredding, storing; Working area characteristics: Steel frame, brick wall, corrugated roof, concrete floor; Input materials: E-waste (CRT TV case, PCB, cable, home appliance), consumer products; Output products: Plastic pellets, metals)"	2022/8/8	2022/8/8
PRA000121	SAA008822	ST035				WR-5F	Air	"Floor dust"	2019	9						Asia	Vietnam	"Bui Dau Village, Hung Yen Province"	20.93305556		106.0986111																																										"This dust sample mainly contained soil, sand, biological fragments and debris from recycling activities; Homogenized by passing through 250 μm sieves and stored at -20℃ until analysis; E-recyling area (Main activities: Manual dismantling, plastic crushing, storing; Working area characteristics: Steel frame, corrugated wall/roof, concrete floor; Input materials: E-waste (TV, refrigerator, home appliance), consumer products; Output products: Plastic pellets)"	2022/8/8	2022/8/8
PRA000121	SAA008823	ST035				WR-5E	Air	"Dust on end-of-life equipment surface"	2019	9						Asia	Vietnam	"Bui Dau Village, Hung Yen Province"	20.93305556		106.0986111																																										"This dust sample mainly contained soil, sand, biological fragments and debris from recycling activities; Homogenized by passing through 250 μm sieves and stored at -20℃ until analysis; E-recyling area (Main activities: Manual dismantling, plastic crushing, storing; Working area characteristics: Steel frame, corrugated wall/roof, concrete floor; Input materials: E-waste (TV, refrigerator, home appliance), consumer products; Output products: Plastic pellets)"	2022/8/8	2022/8/8
PRA000121	SAA008824	ST031				VP-1F	Air	"Floor dust"	2019	9						Asia	Vietnam	"Thuyen Village, Bac Giang Province"	21.14194444		106.0369444																																										"This dust sample mainly contained soil, sand, biological fragments and debris from recycling activities; Homogenized by passing through 250 μm sieves and stored at -20℃ until analysis; ELV processing area (Main activities: Dismantling, storing, open burning; Working area characteristics: Steel frame and floor, corrugated wall/roof, outdoor; Input materials: ELV (Truck, pickup truck, bus); Output products: Vehicle parts, scrap)"	2022/8/8	2022/8/8
PRA000121	SAA008825	ST031				VP-1E	Air	"Dust on end-of-life equipment surface"	2019	9						Asia	Vietnam	"Thuyen Village, Bac Giang Province"	21.14194444		106.0369444																																										"This dust sample mainly contained soil, sand, biological fragments and debris from recycling activities; Homogenized by passing through 250 μm sieves and stored at -20℃ until analysis; ELV processing area (Main activities: Dismantling, storing, open burning; Working area characteristics: Steel frame and floor, corrugated wall/roof, outdoor; Input materials: ELV (Truck, pickup truck, bus); Output products: Vehicle parts, scrap)"	2022/8/8	2022/8/8
PRA000121	SAA008826	ST031				VP-2F	Air	"Floor dust"	2019	9						Asia	Vietnam	"Thuyen Village, Bac Giang Province"	21.28166667		106.2313889																																										"This dust sample mainly contained soil, sand, biological fragments and debris from recycling activities; Homogenized by passing through 250 μm sieves and stored at -20℃ until analysis; ELV processing area (Main activities: Dismantling, storing; Working area characteristics: Steel frame, brick wall, corrugated roof, concrete floor, outdoor; Input materials: ELV (Truck, pickup truck, bus); Output products: Vehicle parts, scrap)"	2022/8/8	2022/8/8
PRA000121	SAA008827	ST031				VP-2E	Air	"Dust on end-of-life equipment surface"	2019	9						Asia	Vietnam	"Thuyen Village, Bac Giang Province"	21.28166667		106.2313889																																										"This dust sample mainly contained soil, sand, biological fragments and debris from recycling activities; Homogenized by passing through 250 μm sieves and stored at -20℃ until analysis; ELV processing area (Main activities: Dismantling, storing; Working area characteristics: Steel frame, brick wall, corrugated roof, concrete floor, outdoor; Input materials: ELV (Truck, pickup truck, bus); Output products: Vehicle parts, scrap)"	2022/8/8	2022/8/8
PRA000121	SAA008828	ST031				VP-3F	Air	"Floor dust"	2019	9						Asia	Vietnam	"Thuyen Village, Bac Giang Province"	21.28055556		106.2316667																																										"This dust sample mainly contained soil, sand, biological fragments and debris from recycling activities; Homogenized by passing through 250 μm sieves and stored at -20℃ until analysis; Used only for HFRs and PCBs analysis and not used for OPEs analysis due to limited sample amount; ELV processing area (Main activities: Dismantling, storing, open burning; Working area characteristics: Steel frame, no wall, tarpaulin cover, soil floor, outdoor; Input materials: ELV (bus); Output products: Vehicle parts, scrap"	2022/8/8	2022/8/8
PRA000121	SAA008829	ST031				VP-3E	Air	"Dust on end-of-life equipment surface"	2019	9						Asia	Vietnam	"Thuyen Village, Bac Giang Province"	21.28055556		106.2316667																																										"This dust sample mainly contained soil, sand, biological fragments and debris from recycling activities; Homogenized by passing through 250 μm sieves and stored at -20℃ until analysis; ELV processing area (Main activities: Dismantling, storing, open burning; Working area characteristics: Steel frame, no wall, tarpaulin cover, soil floor, outdoor; Input materials: ELV (bus); Output products: Vehicle parts, scrap)"	2022/8/8	2022/8/8
PRA000121	SAA008830	ST031				VP-4F	Air	"Floor dust"	2019	9						Asia	Vietnam	"Thuyen Village, Bac Giang Province"	21.2825		106.2311111																																										"This dust sample mainly contained soil, sand, biological fragments and debris from recycling activities; Homogenized by passing through 250 μm sieves and stored at -20℃ until analysis; ELV processing area (Main activities: Repair, maintenance; Working area characteristics: Steel frame, brick wall, corrugated roof, concrete floor, outdoor; Input materials: Truck, dump truck; Output products: No)"	2022/8/8	2022/8/8
PRA000121	SAA008831	ST031				VP-5F	Air	"Floor dust"	2019	9						Asia	Vietnam	"Thuyen Village, Bac Giang Province"	21.28222222		106.2308333																																										"This dust sample mainly contained soil, sand, biological fragments and debris from recycling activities; Homogenized by passing through 250 μm sieves and stored at -20℃ until analysis; ELV processing area (Main activities: Dismantling, storing; Working area characteristics: Steel frame, brick wall, corrugated roof, concrete floor, outdoor; Input materials: ELV(truck, pickup truck, bus, car); Output products: Vehicle parts, scrap)"	2022/8/8	2022/8/8
PRA000121	SAA008832	ST031				VP-5E	Air	"Dust on end-of-life equipment surface"	2019	9						Asia	Vietnam	"Thuyen Village, Bac Giang Province"	21.28222222		106.2308333																																										"This dust sample mainly contained soil, sand, biological fragments and debris from recycling activities; Homogenized by passing through 250 μm sieves and stored at -20℃ until analysis; ELV processing area (Main activities: Dismantling, storing; Working area characteristics: Steel frame, brick wall, corrugated roof, concrete floor, outdoor; Input materials: ELV(truck, pickup truck, bus, car); Output products: Vehicle parts, scrap)"	2022/8/8	2022/8/8
PRA000121	SAA008833	ST031				VP-6F	Air	"Floor dust"	2019	9						Asia	Vietnam	"Thuyen Village, Bac Giang Province"	21.2825		106.2302778																																										"This dust sample mainly contained soil, sand, biological fragments and debris from recycling activities; Homogenized by passing through 250 μm sieves and stored at -20℃ until analysis; ELV processing area (Main activities: Dismantling, storing; Working area characteristics: Steel frame/floor, brick wall, corrugated roof, outdoor; Input materials: ELV(truck, pickup truck, bus); Output products: Vehicle parts, scrap)"	2022/8/8	2022/8/8
PRA000121	SAA008834	ST031				VP-6F	Air	"Dust on end-of-life equipment surface"	2019	9						Asia	Vietnam	"Thuyen Village, Bac Giang Province"	21.2825		106.2302778																																										"This dust sample mainly contained soil, sand, biological fragments and debris from recycling activities; Homogenized by passing through 250 μm sieves and stored at -20℃ until analysis; ELV processing area (Main activities: Dismantling, storing; Working area characteristics: Steel frame/floor, brick wall, corrugated roof, outdoor; Input materials: ELV(truck, pickup truck, bus); Output products: Vehicle parts, scrap)"	2022/8/8	2022/8/8
PRA000127	SAA009950	ST009	29158			HR-1M	"Mytilus galloprovincialis"	"Blue mussel"	2017	11	7					Asia	Japan	"Otake city, Horoshima"	34.24083333		132.2330556			"Whole soft tissues"	0.88																																							2025/02/14	2025/02/14
PRA000127	SAA009951	ST009	29158			HR-2M	"Mytilus galloprovincialis"	"Blue mussel"	2017	11	7					Asia	Japan	"Hatsukaichi city, Horoshima"	34.30638889		132.32			"Whole soft tissues"	0.84																																							2025/02/14	2025/02/14
PRA000127	SAA009952	ST009	29158			HR-3M	"Mytilus galloprovincialis"	"Blue mussel"	2017	11	7					Asia	Japan	"Hatsukaichi city, Horoshima"	34.3575		132.3386111			"Whole soft tissues"	0.64																																							2025/02/14	2025/02/14
PRA000127	SAA009953	ST009	29158			HR-4M	"Mytilus galloprovincialis"	"Blue mussel"	2017	11	7					Asia	Japan	"Etajima city, Horoshima"	34.26666667		132.4088889			"Whole soft tissues"	0.77																																							2025/02/14	2025/02/14
PRA000127	SAA009954	ST009	29158			HR-5M	"Mytilus galloprovincialis"	"Blue mussel"	2017	11	7					Asia	Japan	"Hiroshima city, Horoshima"	34.34305556		132.465			"Whole soft tissues"	1.1																																							2025/02/14	2025/02/14
PRA000127	SAA009955	ST009	29158			EH-1M	"Mytilus galloprovincialis"	"Blue mussel"	2017	10	30					Asia	Japan	"Iyo City, Ehime"	33.75		132.6697222			"Whole soft tissues"	1.6																																							2025/02/14	2025/02/14
PRA000127	SAA009956	ST009	121615			EH-1O	"Crassostrea nippona"	Oyster	2017	10	30					Asia	Japan	"Iyo City, Ehime"	33.75		132.6697222			"Whole soft tissues"	1.6																																							2025/02/14	2025/02/14
PRA000127	SAA009957	ST009	29158			EH-2M	"Mytilus galloprovincialis"	"Blue mussel"	2017	11	8					Asia	Japan	"Matsuyama City, Ehime"	33.8525		132.7077778			"Whole soft tissues"	1.2																																							2025/02/14	2025/02/14
PRA000127	SAA009958	ST009	29158			EH-3M	"Mytilus galloprovincialis"	"Blue mussel"	2017	11	8					Asia	Japan	"Matsuyama City, Ehime"	33.89111111		132.7252778			"Whole soft tissues"	0.66																																							2025/02/14	2025/02/14
PRA000127	SAA009959	ST009	42192			EH-4M	"Mytilus coruscus"	Mussel	2017	11	8					Asia	Japan	"Imabari City, Ehime"	34.09277778		133.0197222			"Whole soft tissues"	0.68																																							2025/02/14	2025/02/14
PRA000127	SAA009960	ST009	42192			EH-5M	"Mytilus coruscus"	Mussel	2017	11	8					Asia	Japan	"Niihama City, Ehime"	33.97277778		133.2977778			"Whole soft tissues"	2.7																																							2025/02/14	2025/02/14
PRA000127	SAA009961	ST009	42192			EH-6M	"Mytilus coruscus"	Mussel	2017	11	8					Asia	Japan	"Shikokuchuo City, Ehime"	34.02444444		133.5805556			"Whole soft tissues"	2.7																																							2025/02/14	2025/02/14
PRA000127	SAA009962	ST009	121615			OK-1O	"Crassostrea nippona"	Oyster	2017	11	30					Asia	Japan	"Kurashiki City, Okayama"	34.52777778		133.6561111			"Whole soft tissues"	1.9																																							2025/02/14	2025/02/14
PRA000127	SAA009963	ST009	121615			OK-2O	"Crassostrea nippona"	Oyster	2017	11	30					Asia	Japan	"Kurashiki City, Okayama"	34.52138889		133.6938889			"Whole soft tissues"	0.38																																							2025/02/14	2025/02/14
PRA000127	SAA009964	ST009	121615			OK-3O	"Crassostrea nippona"	Oyster	2017	11	30					Asia	Japan	"Okayama City, Okayama"	34.60305556		133.9883333			"Whole soft tissues"	1.7																																							2025/02/14	2025/02/14
PRA000127	SAA009965	ST009	42192			KG-1M	"Mytilus coruscus"	Mussel	2017	11	29					Asia	Japan	"Utazu Town, Kagawa"	34.32833333		133.84			"Whole soft tissues"	1.8																																							2025/02/14	2025/02/14
PRA000127	SAA009966	ST009	42192			KG-2M	"Mytilus coruscus"	Mussel	2017	11	29					Asia	Japan	"Sakaide City, Kagawa"	34.37138889		133.8763889			"Whole soft tissues"	1.3																																							2025/02/14	2025/02/14
PRA000127	SAA009967	ST009	121615			KG-2O	"Crassostrea nippona"	Oyster	2017	11	29					Asia	Japan	"Sakaide City, Kagawa"	34.37138889		133.8763889			"Whole soft tissues"	1.3																																							2025/02/14	2025/02/14
PRA000127	SAA009968	ST009	121615			KG-3O	"Crassostrea nippona"	Oyster	2017	11	29					Asia	Japan	"Takamatsu City, Kagawa"	34.34777778		134.0711111			"Whole soft tissues"	0.87																																							2025/02/14	2025/02/14
PRA000127	SAA009969	ST009	29158			HY-1M	"Mytilus galloprovincialis"	"Blue mussel"	2017	11	29					Asia	Japan	"Himeji City, Hyogo"	34.77916667		134.5997222			"Whole soft tissues"	1.4																																							2025/02/14	2025/02/14
PRA000127	SAA009970	ST009	121615			HY-2O	"Crassostrea nippona"	Oyster	2017	11	29					Asia	Japan	"Himeji City, Hyogo"	34.79888889		134.6608333			"Whole soft tissues"	1.1																																							2025/02/14	2025/02/14
PRA000127	SAA009971	ST009	121615			HY-3O	"Crassostrea nippona"	Oyster	2017	11	29					Asia	Japan	"Minamiawaji City, Hyogo"	34.32027778		134.7183333			"Whole soft tissues"	0.65																																							2025/02/14	2025/02/14
PRA000127	SAA009972	ST009	29158			HY-5M	"Mytilus galloprovincialis"	"Blue mussel"	2017	11	30					Asia	Japan	"Kobe City, Hyogo"	34.62277778		135.0638889			"Whole soft tissues"	1.1																																							2025/02/14	2025/02/14
PRA000127	SAA009973	ST009	121615			HY-5O	"Crassostrea nippona"	Oyster	2017	11	30					Asia	Japan	"Kobe City, Hyogo"	34.62277778		135.0638889			"Whole soft tissues"	0.78																																							2025/02/14	2025/02/14
PRA000127	SAA009974	ST009	121615			HY-6O	"Crassostrea nippona"	Oyster	2017	11	29					Asia	Japan	"Kobe City, Hyogo"	34.67833333		135.1861111			"Whole soft tissues"	0.61																																							2025/02/14	2025/02/14
PRA000127	SAA009975	ST009	121615			OS-1O	"Crassostrea nippona"	Oyster	2017	11	30					Asia	Japan	"Osaka City, Osaka"	34.69305556		135.4075			"Whole soft tissues"	0.82																																							2025/02/14	2025/02/14
PRA000127	SAA009976	ST009	1289581			OS-2M	"Xenostrobus securis"	"Small brown mussel"	2017	11	30					Asia	Japan	"Osaka City, Osaka"	34.665		135.4483333			"Whole soft tissues"	0.55																																							2025/02/14	2025/02/14
PRA000127	SAA009977	ST009	121615			OS-3O	"Crassostrea nippona"	Oyster	2019	7	16					Asia	Japan	"Izumisano City, Osaka"	34.42944444		135.3194444			"Whole soft tissues"	0.99																																							2025/02/14	2025/02/14
PRA000127	SAA009978	ST009	121615			OS-4O	"Crassostrea nippona"	Oyster	2019	7	16					Asia	Japan	"Sennan City, Osaka"	34.32166667		135.1294444			"Whole soft tissues"	1.3																																							2025/02/14	2025/02/14
PRA000127	SAA009979	ST009	121615			OS-5O	"Crassostrea nippona"	Oyster	2019	7	17					Asia	Japan	"Osaka City, Osaka"	34.61361111		135.4441667			"Whole soft tissues"	2.4																																							2025/2/14	2025/2/14
